ECMWFFLT1_sfc_dewp_000.txt.gz
Dewpoint
48 48 48 49 51 53 53 52 52 53 53 54 54 55 55 57 59 61 64 65 65 64 64 64 64 64 64 64 63 61 59 59 60 57 57 57 55 55 55 55 56 57 54 54 54 52 52 51 53 56 58 58 59 59 59 58 58 60 61 61 60 61 61
48 48 49 50 50 51 52 52 52 52 53 54 54 55 55 56 58 59 61 63 65 65 65 64 64 64 63 63 62 62 62 60 60 59 58 57 56 56 54 54 54 57 55 55 54 53 53 52 52 53 54 57 58 59 59 59 59 61 62 62 61 61 60
47 47 47 48 49 50 51 51 52 52 52 53 54 54 55 55 56 58 60 61 63 64 65 65 64 64 63 63 63 62 62 61 60 60 58 58 57 57 55 55 54 55 56 55 55 54 55 54 51 52 54 55 54 57 59 59 60 61 62 62 62 60 58
46 46 46 46 47 48 49 49 50 51 52 52 53 54 55 55 56 57 59 60 62 63 64 64 64 64 64 64 63 62 62 61 62 60 58 58 57 57 55 54 54 54 54 54 55 54 55 55 54 54 54 54 55 55 58 59 60 61 61 62 61 59 57
46 46 46 46 46 47 48 48 49 50 51 52 53 53 53 54 55 56 58 59 60 62 63 64 64 64 64 64 63 63 62 62 61 61 60 58 58 57 56 55 54 55 55 55 56 55 55 55 55 54 54 55 55 56 59 59 59 60 60 60 59 57 55
46 46 46 46 47 47 47 47 48 48 49 50 52 52 53 53 54 55 56 57 59 60 62 64 64 63 63 63 63 62 62 61 62 60 60 59 58 57 56 56 54 54 55 57 58 56 56 56 55 55 55 55 55 57 59 58 56 56 57 58 56 54 53
46 45 46 46 47 47 47 47 47 47 48 49 50 51 52 53 53 54 55 56 58 59 61 62 63 63 63 64 63 63 62 62 62 61 60 59 59 58 58 57 56 55 56 58 58 58 57 56 55 55 56 56 56 57 59 58 56 55 55 53 52 51 51
46 46 45 45 45 46 47 47 48 48 49 49 50 51 52 52 53 53 54 55 56 57 59 60 62 63 63 63 63 62 62 62 62 61 60 60 59 58 58 58 57 57 57 58 58 58 58 57 57 56 56 56 57 58 58 57 55 56 53 51 50 49 49
47 46 45 45 46 46 46 47 47 47 48 48 49 50 51 51 52 53 53 54 54 56 57 59 60 61 62 62 62 62 62 62 61 61 61 60 59 59 58 58 58 57 58 58 59 59 58 58 58 58 57 55 55 56 57 57 56 53 53 51 49 48 46
44 45 45 45 45 46 46 46 46 47 47 48 49 51 52 52 52 52 53 54 54 55 55 57 59 60 61 62 62 62 62 62 62 61 61 60 59 60 58 58 58 58 58 59 59 59 59 59 58 58 56 55 55 54 56 56 56 53 52 52 49 47 44
45 45 45 45 45 45 45 45 46 46 46 48 48 49 49 50 51 52 53 53 53 54 55 56 57 58 60 61 61 62 62 62 62 62 61 61 59 58 58 58 58 57 58 58 59 59 59 59 58 58 57 56 56 55 56 56 56 55 52 50 49 47 44
44 44 44 45 45 45 45 45 45 45 46 47 47 48 48 48 49 49 50 51 53 54 54 55 56 57 58 59 60 61 62 61 61 61 62 62 60 59 58 57 58 57 58 58 58 59 59 59 59 58 57 57 57 57 57 57 55 54 54 51 48 47 43
44 44 44 45 45 44 44 44 45 45 46 46 46 47 48 48 48 49 51 53 53 53 53 54 55 56 57 58 59 60 61 61 61 61 61 61 61 60 59 58 58 57 58 58 58 58 58 58 58 58 58 57 57 57 57 57 56 54 52 51 49 46 43
44 44 44 44 44 44 44 44 44 45 45 45 46 46 46 46 47 48 50 51 52 53 54 54 54 55 56 57 58 59 60 61 61 61 61 61 61 61 60 59 58 57 57 57 57 57 57 57 58 58 58 57 57 57 57 57 55 46 46 49 49 45 42
44 44 44 44 44 44 44 44 45 44 44 45 46 46 45 45 46 47 49 51 53 53 53 53 54 55 55 56 56 58 59 60 60 60 61 60 61 60 60 59 59 57 56 56 56 55 56 56 57 57 60 59 57 56 58 57 54 49 46 47 47 45 43
44 44 44 43 43 43 43 43 43 44 44 44 44 44 44 44 45 46 48 49 51 53 53 53 54 55 55 55 55 57 58 59 60 60 60 60 60 60 60 59 58 57 57 56 56 56 56 56 56 56 58 59 58 57 57 56 51 48 46 45 45 43 43
44 43 43 43 43 43 43 43 43 43 43 43 43 43 44 44 44 45 46 48 49 51 53 53 53 54 55 55 55 56 57 59 59 60 60 59 60 60 59 59 58 58 56 55 55 55 55 56 56 57 59 59 58 58 56 54 52 49 45 43 43 41 40
43 43 43 43 43 43 43 42 43 42 43 43 42 42 43 44 44 44 45 46 48 51 52 53 53 53 54 55 56 57 57 58 59 59 59 59 58 59 59 59 59 58 56 55 55 55 54 55 55 57 58 59 59 59 55 52 52 50 45 44 41 38 36
43 42 42 42 42 42 42 42 42 42 41 41 41 41 42 42 43 44 45 46 47 49 52 52 53 52 53 54 56 57 58 58 59 59 59 59 59 59 58 58 59 58 56 55 54 54 54 54 55 56 57 58 58 58 55 52 51 49 47 41 35 33 33
43 42 42 42 43 42 42 42 41 40 40 40 40 40 41 41 42 43 43 45 46 48 51 52 53 53 53 53 54 56 57 58 59 59 59 59 59 58 58 58 57 57 55 54 54 53 53 53 54 55 57 58 58 55 50 49 47 48 44 35 33 33 32
43 43 43 43 42 42 41 41 41 40 40 40 40 39 40 40 41 42 43 44 46 48 50 52 53 53 53 53 54 55 56 57 58 59 58 58 58 58 57 57 57 56 54 54 53 52 52 52 53 54 56 56 55 52 48 46 45 42 38 33 30 29 30
43 43 43 42 42 42 41 41 40 39 39 39 39 39 40 41 41 42 43 44 45 47 50 52 53 53 53 53 55 56 56 57 58 58 58 58 58 57 56 56 55 54 53 51 49 48 49 49 53 54 54 53 51 50 46 43 40 38 41 37 29 30 29
43 43 42 41 41 41 40 40 39 39 39 40 39 39 39 40 41 42 44 45 47 48 49 51 51 49 50 53 54 56 57 57 58 58 57 57 57 55 55 54 53 50 48 48 46 44 44 46 48 52 51 50 48 46 45 43 43 41 34 32 30 28 28
43 42 41 41 40 40 39 39 39 39 39 39 40 39 39 39 40 43 44 45 47 48 50 51 49 47 46 47 53 56 57 58 58 57 56 56 54 53 52 51 50 49 47 46 46 43 43 44 45 45 45 45 45 45 43 42 42 36 35 34 30 28 28
42 41 40 40 39 39 39 39 38 38 39 39 40 41 41 41 42 43 45 46 47 48 50 49 47 46 46 46 48 54 57 57 56 55 54 54 52 51 49 48 46 44 44 45 45 45 44 43 43 42 42 42 42 41 41 43 40 39 40 38 37 36 34
41 40 39 39 39 39 39 38 38 38 38 39 40 40 40 42 43 44 46 47 48 49 50 48 46 45 45 45 45 50 56 55 54 54 52 51 49 48 47 45 44 42 42 44 45 45 45 44 41 41 40 40 39 39 37 37 38 40 37 35 34 33 30
40 39 39 39 39 39 38 38 38 38 39 39 40 41 42 42 44 45 47 48 49 50 51 49 45 45 45 45 45 47 55 54 53 52 51 50 49 48 47 45 44 42 42 42 42 42 42 41 42 40 39 38 38 37 35 35 35 36 39 38 35 32 30
40 40 40 39 39 38 38 38 38 38 39 39 40 41 41 43 44 46 48 50 50 50 51 48 45 44 44 44 45 45 54 52 52 51 51 50 48 48 47 46 45 44 42 42 42 41 40 40 39 37 35 35 35 35 36 35 35 35 35 35 35 31 29
40 40 39 39 38 38 37 37 37 38 39 39 40 42 42 43 45 48 49 50 51 51 52 46 45 44 44 44 44 50 53 51 50 49 48 48 48 48 47 46 46 45 43 42 40 38 39 38 36 35 32 31 31 31 32 34 33 34 34 32 30 28 29
40 39 39 38 37 37 37 37 37 38 38 39 40 40 41 43 46 49 50 50 50 51 50 45 44 44 44 44 45 51 51 50 48 47 46 46 46 46 46 46 45 45 43 42 38 36 36 37 37 32 30 29 30 29 30 33 33 33 32 32 32 32 32
39 39 38 37 36 36 36 36 37 38 38 38 39 40 41 43 45 49 49 49 49 48 46 45 42 43 43 43 46 50 49 48 46 44 43 42 42 43 44 43 43 43 41 41 35 35 35 37 35 31 29 28 28 28 29 31 32 33 33 33 32 32 32
39 38 37 36 36 35 35 35 37 38 38 39 39 40 41 43 45 47 48 48 46 46 45 44 41 42 42 42 46 48 46 46 43 42 41 40 41 42 41 40 40 40 40 39 34 35 35 35 32 30 28 27 26 26 28 29 28 29 29 27 29 28 30
38 38 37 36 35 35 35 35 35 37 38 39 39 40 42 44 43 42 44 45 45 45 44 43 43 41 41 41 43 45 45 44 41 40 40 40 40 39 40 39 38 36 36 35 34 34 34 34 32 29 28 26 24 26 27 26 26 26 26 26 27 30 31
38 37 37 36 35 35 35 34 36 37 37 39 41 42 41 41 40 39 40 40 41 41 43 42 41 39 40 40 41 42 44 44 42 41 40 39 38 37 38 39 38 35 34 33 33 33 33 32 33 33 29 26 25 26 27 26 28 28 26 29 30 29 29
38 38 37 36 34 34 35 35 36 36 36 37 38 39 38 38 37 37 37 38 38 39 41 40 40 39 39 39 39 40 44 43 41 41 40 39 38 38 38 39 38 35 34 33 33 33 32 32 32 31 29 28 29 28 27 27 26 26 26 27 27 27 26
38 37 37 35 34 33 34 35 35 36 35 35 36 37 36 36 36 35 35 35 36 37 38 39 38 39 37 38 38 37 39 40 37 41 40 38 38 38 38 37 37 35 33 33 32 31 31 31 31 29 29 29 29 29 27 25 25 25 25 26 25 24 23
38 37 37 35 34 33 33 34 35 35 35 35 35 35 36 36 35 34 34 34 35 36 36 37 37 37 37 36 36 36 36 37 38 40 41 39 36 37 36 37 36 33 32 31 31 31 30 30 30 29 29 29 28 28 26 25 24 26 25 23 22 21 21

ECMWFFLT1_sfc_dewp_003.txt.gz
Dewpoint
48 49 49 50 50 50 49 51 51 52 53 52 53 54 55 55 55 56 57 57 60 63 64 63 64 64 64 64 64 63 64 63 61 61 62 60 58 58 59 58 58 56 54 53 51 49 46 49 50 52 55 57 57 60 59 58 57 58 61 60 57 56 58
48 48 48 48 48 49 50 50 51 51 52 53 53 53 55 54 55 56 56 56 57 58 63 62 63 63 64 63 64 64 63 63 63 62 63 62 59 58 58 58 57 56 54 54 51 50 46 47 46 49 52 58 61 60 61 61 59 60 61 61 58 57 61
48 48 48 47 48 49 49 50 50 50 50 51 52 53 53 54 55 55 55 56 57 58 60 60 63 62 63 63 63 63 64 63 63 63 62 63 61 59 59 58 57 57 56 54 53 52 51 51 47 49 52 55 53 54 60 61 61 61 61 62 63 59 61
48 48 47 47 47 48 48 49 49 49 50 50 51 52 53 53 55 55 56 56 56 59 58 57 61 63 63 63 63 65 63 63 63 63 62 62 62 61 59 58 58 57 56 55 54 54 54 53 49 49 51 49 48 52 60 61 60 59 59 62 62 62 62
47 47 47 47 47 47 48 47 47 48 49 49 50 51 52 53 54 54 55 55 55 57 58 59 60 61 64 63 63 65 65 64 63 62 62 62 62 62 60 59 58 58 58 57 56 56 55 54 53 51 50 48 46 49 56 61 60 58 58 59 60 60 59
47 47 47 47 47 46 46 47 47 47 47 48 48 49 51 53 52 53 54 54 54 56 57 57 58 59 61 64 64 64 64 63 63 62 62 62 62 63 61 59 58 57 58 58 57 57 56 55 55 51 49 49 50 49 55 58 57 57 59 59 58 58 59
47 47 46 46 46 46 46 46 46 46 47 48 48 49 50 51 51 53 53 53 54 54 54 56 57 58 59 60 63 64 63 64 63 63 62 62 63 63 63 62 59 58 58 58 58 58 57 56 55 53 53 52 51 50 54 54 55 56 57 57 57 56 58
46 46 46 46 46 46 46 46 46 46 46 46 47 48 49 50 50 51 52 52 52 53 54 55 56 57 59 60 61 62 62 64 64 63 62 62 62 63 63 62 61 61 58 57 57 58 56 57 56 55 54 53 52 52 54 54 54 55 56 55 54 53 54
46 46 45 45 45 46 46 45 45 45 45 46 47 47 48 49 49 50 50 52 52 53 54 54 55 55 57 58 59 61 62 63 61 63 63 63 62 63 63 64 62 61 60 57 57 58 56 56 57 56 56 53 51 50 53 54 54 54 55 53 51 51 51
45 45 45 45 45 46 45 45 44 45 46 46 46 47 47 48 49 50 51 51 51 52 53 53 54 55 56 57 57 59 61 63 63 63 63 62 63 63 63 63 63 63 63 59 58 57 58 58 56 56 55 53 53 50 49 51 54 53 54 54 51 49 48
44 44 44 44 45 44 44 44 44 44 45 45 45 46 46 47 47 49 49 50 51 52 52 52 52 53 55 55 56 57 58 61 63 62 62 62 63 63 62 63 63 63 62 61 59 59 59 58 57 56 56 54 55 50 50 50 53 56 55 56 53 49 46
44 43 43 43 43 43 43 44 44 43 44 45 45 45 46 46 47 47 48 48 49 49 51 52 53 53 53 54 55 56 57 58 60 62 62 62 62 62 62 61 62 63 63 63 61 59 59 60 58 56 56 55 55 55 53 52 50 56 56 55 55 49 46
42 42 43 43 43 43 43 43 43 44 44 44 44 44 44 45 45 46 47 47 48 48 49 51 51 52 52 53 54 54 56 57 57 59 61 63 62 62 62 61 61 62 63 63 62 60 59 59 58 56 57 56 55 56 55 54 51 55 57 56 53 49 46
42 42 43 43 43 43 43 43 43 43 43 43 44 44 44 44 44 45 45 46 46 48 48 49 50 52 52 52 53 53 54 55 55 56 58 60 62 61 61 60 60 61 62 62 62 59 58 58 59 58 57 56 55 56 55 55 53 53 56 56 52 47 45
42 42 43 43 43 43 43 43 43 43 43 43 43 43 43 44 44 44 44 44 45 46 47 48 50 51 50 51 52 53 53 54 55 55 57 58 60 62 62 61 59 60 60 61 61 58 58 58 58 57 56 56 55 56 57 54 53 54 54 53 50 46 43
42 43 43 43 43 42 42 43 43 43 42 42 42 42 42 43 43 43 43 44 44 45 46 47 49 50 51 51 51 52 53 53 54 55 56 57 57 60 61 61 60 60 61 60 60 60 58 58 57 56 56 56 56 56 56 55 55 55 54 52 50 45 43
42 42 43 43 43 43 42 42 42 42 42 42 42 42 42 42 42 43 43 43 43 44 44 46 47 48 49 51 52 51 51 52 52 53 55 55 55 58 59 61 60 60 60 60 60 61 61 59 58 56 57 57 58 56 58 58 57 56 54 51 49 44 43
42 42 43 42 43 42 42 42 42 41 42 41 41 42 42 42 42 42 42 42 43 43 44 44 46 47 49 50 52 52 51 51 52 52 54 55 55 57 58 60 60 60 60 60 60 60 61 60 57 57 57 56 57 58 59 59 57 55 53 51 49 46 45
42 42 42 42 42 42 42 42 42 42 41 41 40 41 41 40 41 40 41 41 42 43 43 44 44 45 47 49 51 53 52 52 51 51 52 54 55 55 57 58 60 60 59 59 60 61 60 60 59 57 57 57 57 58 60 59 57 55 53 50 48 46 45
41 42 42 42 42 41 42 42 41 41 41 41 40 40 40 39 40 40 40 40 41 42 42 43 44 45 45 47 49 51 52 53 52 52 52 52 54 55 56 57 60 61 60 60 60 61 60 60 60 59 58 59 58 59 60 58 55 54 53 50 48 46 42
42 41 42 42 42 42 42 42 41 40 40 40 40 39 38 38 38 39 39 39 40 41 42 42 43 44 45 46 48 49 50 51 52 52 53 52 54 55 55 57 60 61 61 60 60 60 61 60 59 59 59 59 60 60 58 56 54 53 51 49 46 46 47
42 42 41 41 42 42 41 40 40 39 39 39 40 38 38 38 38 37 38 39 39 40 41 42 42 43 44 45 46 49 50 50 51 52 52 53 54 55 55 56 59 61 60 57 54 55 56 55 59 58 58 59 59 60 57 55 54 51 49 48 46 47 46
41 40 41 41 40 40 39 38 38 38 38 38 38 38 38 38 37 37 38 38 39 40 41 42 42 42 43 45 46 48 50 51 51 51 52 53 54 55 55 56 59 55 54 53 52 51 50 51 52 57 60 59 60 59 57 55 54 51 48 47 45 43 44
39 39 40 39 38 38 37 38 38 38 38 38 38 38 38 37 37 37 38 38 38 39 40 41 41 40 41 42 46 48 50 51 52 52 52 52 53 54 55 55 57 57 54 52 53 48 49 49 48 49 51 53 54 60 58 55 51 50 49 45 44 43 45
39 39 38 37 37 37 37 38 38 38 37 37 38 38 37 37 37 37 38 38 38 39 39 40 40 40 41 41 43 47 49 52 52 52 52 52 52 54 55 56 59 60 60 58 57 53 50 47 46 46 46 48 49 49 49 53 50 48 47 47 44 43 45
39 38 37 36 37 38 37 37 37 37 37 37 38 37 37 37 37 37 37 37 38 39 39 39 39 40 41 41 42 44 47 50 52 53 52 52 52 54 55 56 58 59 59 53 55 56 55 51 45 45 46 46 46 46 44 44 45 48 48 47 45 44 44
38 37 36 36 37 37 37 37 37 37 37 37 37 37 37 37 37 37 37 37 38 39 39 40 39 41 41 41 41 43 47 49 51 53 53 53 55 55 55 55 57 57 56 56 57 55 54 52 51 51 51 52 51 48 43 42 42 43 47 48 47 45 47
37 36 36 36 37 36 37 37 36 36 36 36 36 36 36 36 37 37 37 38 38 39 40 40 40 40 41 41 42 42 48 49 51 53 53 54 55 55 56 55 56 56 54 54 54 52 52 51 52 50 50 50 49 47 48 47 47 47 49 51 50 52 49
36 34 35 36 36 36 36 36 35 35 36 35 36 36 36 36 36 37 37 38 39 40 41 40 40 41 41 41 42 46 48 49 51 53 53 53 54 54 55 56 56 55 52 53 48 44 47 51 51 49 47 44 43 42 40 38 39 41 48 49 48 45 44
35 33 35 36 35 35 35 35 36 36 35 35 35 35 35 35 36 36 37 38 39 41 42 42 41 41 41 42 43 47 49 50 51 53 53 54 55 55 55 55 55 53 52 52 44 41 42 45 48 45 43 41 41 40 38 38 36 35 35 35 35 35 35
35 34 35 35 36 36 36 35 35 35 35 35 35 35 36 36 36 37 37 38 39 41 43 44 43 42 42 42 44 48 49 50 51 54 54 54 54 54 54 50 52 52 51 50 40 40 40 44 46 43 41 39 38 36 35 36 36 35 34 33 33 33 32
36 35 36 36 36 36 35 35 35 35 35 35 36 36 36 36 37 38 38 39 40 41 42 44 44 43 42 42 44 49 50 51 52 53 53 53 54 54 54 50 48 49 49 46 38 39 39 43 44 42 41 40 37 36 36 36 34 33 34 32 31 32 32
36 36 36 36 36 36 35 35 35 35 36 36 36 36 37 38 39 39 40 40 41 42 43 46 48 43 43 43 43 49 51 51 51 51 51 50 48 49 51 50 47 42 42 39 38 38 39 40 43 42 40 38 37 35 34 35 36 35 33 31 32 33 33
36 37 37 37 36 36 35 35 36 36 36 36 36 36 37 37 38 41 42 42 43 44 46 48 49 42 43 43 43 45 51 51 52 51 49 48 47 46 46 47 47 40 38 37 38 38 39 39 40 43 43 40 39 37 34 33 34 32 32 32 32 32 32
38 38 37 37 36 35 35 35 35 36 35 35 35 35 36 37 37 37 38 40 41 44 46 46 49 42 41 42 42 43 50 53 50 50 48 48 47 47 46 46 44 40 37 37 37 38 38 38 39 44 43 36 33 32 34 32 31 30 30 31 27 26 25
38 38 38 37 35 34 35 34 34 35 34 34 34 35 35 36 36 36 36 37 38 40 43 44 42 43 39 40 41 42 45 48 43 48 47 46 46 46 46 46 44 38 36 37 37 36 36 36 37 37 32 32 31 31 33 33 28 27 26 25 27 23 28
39 38 37 37 36 34 34 34 34 34 34 34 34 34 34 35 35 35 35 36 37 39 40 43 40 41 42 40 40 42 41 41 42 47 47 45 44 43 43 43 40 36 36 36 35 35 35 36 36 32 31 31 31 32 35 30 27 28 26 27 27 24 22

ECMWFFLT1_sfc_dewp_006.txt.gz
Dewpoint
49 50 51 51 51 51 50 51 51 51 52 52 52 52 52 53 53 54 56 57 56 56 57 59 59 61 63 64 65 65 65 65 64 62 62 63 56 56 53 52 54 54 53 53 52 50 48 50 51 53 55 56 56 55 53 53 54 54 55 55 50 50 52
51 50 49 50 49 50 51 50 51 50 50 52 51 52 53 53 53 53 55 55 55 56 55 56 60 61 62 63 65 66 64 64 64 64 63 63 62 61 56 55 54 54 52 53 51 51 48 48 46 50 53 55 56 54 55 56 55 56 58 56 52 51 51
51 50 50 50 50 50 49 50 50 50 50 51 51 52 53 52 53 54 53 54 55 55 55 56 57 60 62 62 63 64 64 63 64 64 63 63 64 65 59 58 56 56 55 53 52 52 51 52 46 44 52 52 52 52 57 57 57 58 57 58 57 52 52
53 52 51 51 49 50 49 49 49 49 49 49 50 51 52 52 53 53 53 54 54 55 54 55 57 58 59 62 62 63 64 63 63 64 62 62 64 65 63 61 58 57 56 55 54 53 54 52 49 49 49 48 51 54 56 57 56 55 55 58 57 56 55
52 52 52 51 50 50 49 48 48 48 49 49 49 48 50 51 52 52 54 54 52 54 54 55 55 56 58 59 61 63 63 64 64 63 63 62 62 63 64 64 62 60 58 57 55 54 54 53 52 50 47 47 47 48 51 57 55 54 54 54 54 55 57
51 51 50 50 50 49 48 49 48 47 47 48 49 49 49 51 51 52 52 52 52 53 53 53 54 55 57 58 59 61 62 63 63 63 63 62 62 63 63 64 64 62 60 58 58 57 56 55 53 51 46 44 46 47 44 52 53 51 52 52 53 54 55
50 50 50 48 50 49 48 48 48 47 47 49 48 49 49 50 50 51 52 53 53 53 52 53 54 55 56 54 56 58 61 62 63 63 62 62 63 63 63 63 63 63 63 62 59 59 56 56 55 52 51 46 47 42 43 48 50 48 49 52 53 53 55
48 47 47 48 49 49 49 49 48 48 47 47 46 48 48 49 50 50 52 51 52 52 53 53 53 54 55 55 54 56 57 60 61 61 62 62 62 62 62 62 61 63 64 63 63 61 57 57 56 54 53 50 47 48 46 46 47 47 49 51 53 53 55
47 47 47 47 48 48 49 48 48 49 48 47 48 48 48 48 49 48 49 50 51 52 52 53 53 53 54 54 54 54 55 56 59 61 61 60 61 60 62 63 62 62 63 64 64 64 62 58 58 57 54 51 48 47 47 46 46 45 48 51 54 55 56
48 48 47 48 49 49 49 48 47 48 49 49 48 48 48 48 47 48 48 49 51 52 52 52 52 52 53 54 53 54 54 55 57 57 59 60 63 63 63 63 62 62 62 64 63 63 64 63 60 57 54 52 51 46 45 45 47 46 48 49 49 53 54
47 47 47 47 48 47 47 47 47 47 47 48 48 48 47 47 46 47 47 48 49 50 51 51 52 52 53 52 53 53 53 54 55 56 57 60 62 61 62 63 61 61 62 63 63 64 64 64 63 61 57 53 53 49 47 45 46 50 47 52 51 49 52
48 47 47 47 47 47 46 46 46 46 47 47 47 47 45 45 45 45 46 47 47 48 50 51 51 52 53 52 52 52 53 54 53 54 56 57 59 61 62 60 62 62 61 63 63 63 63 63 64 65 63 57 54 54 50 47 44 50 51 54 53 53 52
45 46 46 47 46 45 44 45 44 45 45 45 45 46 44 43 44 45 45 45 46 48 48 50 50 50 51 52 52 52 52 53 52 52 53 55 55 58 60 60 61 61 61 62 62 62 63 64 64 65 64 61 54 54 54 50 48 48 53 52 52 52 53
47 46 46 46 46 45 45 45 44 43 41 42 43 44 44 42 41 43 44 44 44 45 46 48 49 50 50 51 51 51 51 51 51 51 51 52 54 56 56 57 61 61 62 62 61 61 61 63 64 64 64 64 58 54 53 53 50 49 56 56 54 51 54
46 46 46 46 45 44 44 43 43 41 43 41 41 42 41 42 42 43 43 43 44 44 45 45 47 48 49 50 51 51 51 51 52 51 51 50 51 53 56 56 57 61 59 60 62 60 59 61 63 62 64 64 61 55 55 52 51 50 54 57 55 53 52
45 45 46 45 45 44 43 43 40 42 41 41 41 42 42 43 42 42 41 43 43 43 44 44 46 46 47 48 48 50 51 51 51 52 52 51 49 50 53 55 56 57 58 58 61 62 61 61 62 62 62 62 61 57 54 53 52 50 56 55 54 51 51
45 45 45 45 45 45 43 42 40 40 41 41 40 41 42 42 42 42 42 42 42 42 43 44 45 45 46 46 48 49 50 50 50 51 51 51 50 50 52 53 55 56 61 62 60 60 60 61 62 61 61 61 62 57 56 56 54 54 57 55 54 48 50
44 45 45 44 45 43 43 42 40 38 40 41 41 42 42 42 42 41 42 41 42 42 43 43 43 44 45 46 47 48 49 49 50 50 51 51 51 52 51 52 53 55 55 59 60 60 61 62 60 61 61 60 61 60 59 59 55 52 55 55 54 51 50
44 44 44 43 43 42 41 41 40 41 41 42 42 42 42 41 41 40 40 40 41 41 41 42 42 42 43 44 46 47 48 49 50 50 50 51 51 52 53 52 52 53 55 56 60 61 60 61 60 62 61 60 61 59 57 58 57 53 55 55 52 50 50
42 43 43 43 42 40 40 41 41 41 41 41 41 40 40 40 41 40 40 40 40 40 41 41 42 43 43 43 44 45 47 48 49 50 51 50 50 52 52 52 52 53 54 55 57 61 63 61 61 61 61 63 61 60 60 58 55 54 53 55 51 50 49
42 42 42 40 39 40 40 41 40 40 40 40 40 39 39 39 40 39 40 40 40 40 40 40 40 41 42 43 44 44 45 47 48 49 51 51 50 51 51 52 53 52 53 54 56 59 61 61 62 62 63 62 61 59 58 57 57 56 55 55 51 50 48
41 41 39 39 38 39 39 40 40 39 39 40 40 39 39 39 39 39 39 39 39 39 40 40 40 41 41 42 43 44 45 45 47 48 50 50 51 50 51 52 52 53 53 52 50 54 56 57 62 61 63 63 63 61 59 57 57 57 55 54 52 51 48
39 39 39 38 37 38 39 39 39 38 38 38 38 39 38 39 38 39 38 38 39 40 40 40 40 40 40 41 43 43 44 45 46 47 48 50 50 50 50 52 53 50 49 49 49 50 51 51 53 59 63 64 62 61 61 60 58 57 55 54 51 50 48
38 37 37 36 38 38 37 38 38 38 38 38 39 39 39 38 38 38 38 38 38 39 40 39 39 38 38 40 41 43 44 44 46 46 47 49 50 50 51 50 52 52 51 49 51 48 49 49 50 51 52 55 57 62 61 60 58 58 55 54 51 49 48
36 37 36 35 36 36 37 37 37 37 38 39 39 39 38 38 38 38 38 38 38 38 39 39 37 38 38 38 40 42 42 43 45 46 46 47 49 50 50 51 52 53 53 53 52 56 52 48 48 48 49 50 52 52 54 59 59 57 55 53 51 51 50
35 35 35 36 36 36 36 36 37 37 37 39 39 38 37 38 38 38 37 37 37 37 38 37 37 37 38 38 38 40 41 41 42 44 46 47 48 50 50 51 52 53 53 49 51 53 58 58 49 46 47 48 49 49 48 48 49 56 57 54 53 52 51
34 34 36 36 35 34 35 35 37 37 37 38 37 37 37 37 37 37 37 36 37 37 37 37 37 37 37 37 37 38 40 41 42 42 43 45 49 51 51 51 51 52 53 53 53 54 54 57 59 56 56 58 59 54 48 48 46 47 51 55 54 53 53
33 35 35 34 34 33 34 36 36 36 36 36 36 36 36 36 36 36 36 36 36 37 37 37 37 37 37 37 37 37 40 40 41 42 43 44 45 48 51 51 52 52 52 53 54 53 55 54 57 58 57 59 60 59 59 58 57 56 54 57 56 56 55
34 33 32 32 33 33 34 35 35 35 36 35 36 36 35 35 36 35 35 36 36 36 36 36 36 36 37 37 37 40 40 40 40 41 42 44 45 46 49 52 51 51 52 53 49 46 50 54 55 58 57 58 59 60 59 44 46 53 55 58 57 57 55
33 31 30 32 32 33 34 35 35 35 35 35 35 34 35 35 35 35 36 36 36 36 36 36 36 36 36 37 37 39 40 40 40 41 42 44 45 46 47 51 53 51 52 52 49 45 47 49 53 56 57 57 56 53 49 47 39 38 38 39 40 40 41
31 30 30 32 33 34 35 36 35 35 34 34 34 34 34 34 35 35 35 35 36 36 37 37 36 36 36 37 38 39 40 40 41 41 42 43 45 46 47 47 52 53 53 53 46 46 45 52 56 56 56 55 52 50 47 46 44 39 37 37 37 37 38
31 30 30 32 34 35 36 36 35 34 34 34 34 34 34 34 34 35 35 36 37 37 37 38 37 36 36 37 38 40 40 41 41 42 43 44 45 47 47 47 48 50 51 51 43 45 44 51 56 56 55 53 51 50 48 47 45 42 43 42 41 41 40
32 29 31 33 34 35 36 36 35 34 34 33 33 33 33 33 33 34 35 36 37 37 38 39 40 38 37 37 38 40 40 41 42 43 44 45 46 47 47 48 50 45 45 43 42 42 43 47 55 55 54 52 51 50 48 48 47 44 42 42 41 41 41
32 32 32 33 34 36 36 36 35 34 33 33 33 32 32 33 33 34 35 36 36 37 39 40 42 38 38 38 38 39 42 43 43 44 45 45 46 46 47 48 53 47 44 41 42 41 43 45 46 54 53 52 51 48 45 45 42 39 41 40 40 39 39
34 34 33 33 33 35 36 36 34 33 32 32 32 31 32 32 33 33 34 36 37 38 39 40 42 41 39 38 38 38 42 44 45 45 46 46 46 47 48 50 51 47 42 40 40 41 41 43 43 52 52 45 39 38 45 43 42 41 40 39 38 38 40
35 33 33 33 32 35 36 35 34 33 32 31 31 31 31 32 33 33 34 35 37 38 38 39 39 41 41 40 39 39 39 42 43 47 48 48 48 48 51 52 53 41 40 39 39 40 41 41 42 50 38 37 37 37 39 42 40 42 41 38 36 37 39
33 33 31 32 32 35 36 35 33 32 31 30 29 29 29 31 31 31 32 33 35 38 39 40 39 38 40 41 41 40 39 40 43 48 50 51 49 49 51 53 48 39 39 38 38 39 39 40 45 36 36 36 36 38 42 40 41 41 36 38 38 38 36

ECMWFFLT1_sfc_dewp_009.txt.gz
Dewpoint
47 49 51 51 51 50 49 52 52 52 51 50 50 50 51 51 52 53 54 55 54 55 54 55 56 58 59 60 62 63 62 62 63 62 61 61 60 60 62 61 59 59 54 51 50 50 49 49 53 54 54 56 56 56 55 53 52 51 55 56 52 52 54
51 50 49 47 48 49 50 50 52 51 51 52 50 50 51 51 51 52 53 53 53 53 53 53 55 55 57 60 60 61 63 65 65 65 63 62 62 61 62 62 62 62 61 52 50 50 48 49 49 53 53 54 57 56 55 54 52 54 54 54 52 50 54
48 48 48 49 50 50 50 50 50 49 49 50 52 52 52 50 51 52 52 52 53 53 53 52 54 56 58 59 60 61 62 64 65 65 64 63 63 64 64 63 62 61 57 53 52 51 51 52 50 49 55 54 52 53 56 55 53 53 54 55 55 51 51
50 51 49 51 50 49 49 49 49 47 48 48 49 52 53 52 52 51 52 53 53 53 51 51 53 54 55 56 58 60 62 62 63 64 65 65 64 64 65 66 62 58 57 56 56 53 52 52 51 51 50 46 50 53 55 54 55 52 52 55 55 54 52
53 52 51 50 50 51 50 49 48 47 48 48 51 49 50 51 52 51 52 52 53 54 52 51 52 53 55 55 56 57 59 61 63 63 64 64 64 63 64 65 64 63 62 59 56 56 55 53 53 51 50 48 46 49 49 56 53 53 52 51 52 54 53
52 52 51 51 51 49 49 49 48 45 45 46 46 48 48 49 50 51 52 51 51 52 53 52 52 53 54 55 55 57 57 58 61 62 64 63 63 62 62 64 65 64 64 63 61 60 62 61 57 58 51 49 48 46 45 52 53 52 51 51 51 51 50
52 52 50 50 51 49 47 47 49 48 46 47 47 48 49 49 49 50 51 51 51 51 51 52 54 54 54 52 54 55 56 57 59 62 64 62 63 62 63 62 63 62 64 64 64 62 61 60 60 59 57 54 51 47 44 44 52 50 50 50 50 50 50
50 49 48 48 49 50 49 49 48 47 48 48 46 48 49 51 51 50 50 51 51 52 52 52 52 54 54 52 52 55 55 55 55 58 61 63 62 62 61 61 62 63 64 64 64 63 62 60 60 61 61 56 55 52 51 43 46 49 48 48 49 49 51
48 48 47 47 47 49 50 50 49 50 49 48 49 49 50 50 50 50 50 50 50 51 51 51 51 51 53 54 52 54 54 54 56 56 57 61 62 63 62 62 61 60 61 63 64 64 64 64 65 63 62 62 56 53 51 46 44 45 47 46 47 49 48
48 47 46 48 50 50 50 50 49 49 50 50 50 49 50 50 50 50 49 49 50 50 51 51 52 53 53 54 53 52 53 54 54 54 55 57 59 63 63 63 62 60 61 62 62 64 64 64 65 65 63 61 60 58 53 49 45 45 46 46 44 47 48
50 49 48 49 50 49 49 49 49 48 48 49 49 50 50 50 50 49 49 48 48 48 49 50 50 51 53 52 52 52 52 53 53 54 55 55 56 58 59 61 62 61 61 61 61 63 63 64 64 65 64 64 63 60 58 55 50 48 46 48 46 44 48
49 48 48 48 49 48 48 47 47 46 48 48 47 48 48 48 49 48 48 47 47 47 47 48 49 51 51 51 52 52 53 53 52 52 53 54 55 56 56 58 60 60 60 61 60 61 62 63 63 64 64 64 63 62 61 59 55 52 50 50 47 47 48
47 47 48 49 48 47 47 47 46 47 47 46 47 47 46 46 46 47 46 45 45 44 44 45 47 49 50 51 51 51 52 52 51 51 51 52 52 54 55 56 58 59 60 60 60 60 61 61 62 62 62 63 63 63 62 61 58 55 56 53 49 47 47
48 47 48 48 48 47 47 46 45 46 45 45 45 45 44 43 43 44 44 44 43 44 44 45 45 47 48 49 50 51 51 51 50 50 50 50 51 52 53 53 54 57 60 60 60 59 59 60 60 60 61 62 62 63 62 60 59 57 56 55 52 48 47
48 48 48 48 48 47 46 46 47 45 46 45 44 43 42 43 43 43 43 42 43 42 43 43 44 45 45 47 49 50 51 50 51 50 51 50 50 50 52 52 52 53 54 57 59 58 57 58 59 60 59 61 61 62 63 61 60 59 56 59 55 52 50
48 48 48 48 47 46 46 46 46 46 45 44 43 42 41 41 41 41 41 42 41 42 42 41 43 43 44 44 45 48 49 50 50 51 51 50 49 49 49 50 51 52 54 55 57 59 60 59 59 58 59 59 59 61 62 63 61 59 59 59 59 54 53
47 47 48 47 46 46 46 46 45 45 44 44 41 42 41 40 40 40 40 40 40 41 42 42 41 41 41 43 44 44 46 48 49 50 50 49 49 50 50 50 49 51 52 53 55 58 59 59 59 59 58 59 60 60 61 63 62 61 61 59 59 55 55
46 47 47 46 47 46 46 46 45 43 44 43 42 41 41 40 40 39 42 40 41 41 41 41 41 41 42 43 43 44 45 46 48 48 49 49 50 50 50 51 50 50 50 51 53 55 56 59 58 58 59 59 60 60 61 62 62 62 60 60 61 57 56
46 46 46 46 46 46 45 45 43 43 42 41 41 41 40 40 41 40 40 41 41 41 41 41 41 41 41 42 42 43 45 45 46 46 47 49 49 49 51 50 51 51 50 50 51 53 55 58 59 60 58 58 58 60 60 61 61 61 60 60 60 60 56
45 45 46 45 45 43 43 43 42 41 41 40 40 39 39 39 40 41 40 41 41 41 41 41 41 42 42 41 42 41 42 43 44 46 47 47 48 49 49 50 50 51 51 51 52 52 53 55 60 61 60 59 59 61 61 60 59 60 59 59 60 60 57
44 44 44 43 42 43 41 41 41 41 40 40 39 38 38 39 40 40 40 40 40 41 41 41 41 41 41 42 42 42 42 42 43 44 46 47 48 49 49 50 50 50 51 51 51 52 53 53 55 59 60 61 61 61 59 59 59 59 59 59 59 58 55
43 42 41 41 41 41 40 41 40 40 39 39 40 39 39 39 39 39 39 39 39 40 41 41 41 41 42 41 41 42 42 42 43 43 44 46 47 48 49 50 49 49 52 51 48 49 50 50 55 56 58 61 62 61 61 59 59 58 59 59 59 57 56
41 41 40 40 40 40 39 39 39 39 38 38 38 39 39 39 38 38 38 38 39 41 41 42 42 41 41 41 41 41 42 43 42 43 43 44 45 47 48 49 51 49 48 48 47 46 45 45 47 54 57 59 62 61 61 60 60 60 59 59 58 56 53
38 38 39 39 39 39 37 38 38 38 38 38 39 39 39 38 39 39 38 38 39 40 40 40 39 38 38 39 41 41 40 41 42 43 44 44 44 45 47 47 49 50 49 48 49 45 44 44 44 45 48 50 55 62 60 60 61 60 59 59 59 55 51
37 37 37 36 37 36 37 37 36 36 36 38 38 39 39 38 38 39 39 39 39 39 40 39 38 38 38 38 39 41 41 40 41 40 41 43 44 45 46 47 48 49 50 51 50 51 49 45 44 44 45 47 48 48 49 59 61 60 60 59 59 57 52
35 36 36 36 36 37 36 35 35 35 35 37 38 37 37 38 38 38 38 38 38 38 39 38 37 38 37 37 37 39 39 39 39 39 40 41 41 43 45 46 47 48 50 48 51 51 51 52 47 44 45 47 47 48 47 47 49 60 61 59 58 56 53
34 34 35 36 36 34 34 34 35 35 35 36 36 37 37 38 38 37 37 37 37 38 38 38 37 37 37 37 37 37 39 39 39 39 39 39 41 41 43 44 45 47 48 50 51 51 51 51 52 54 53 54 56 54 47 48 47 46 53 62 60 57 54
34 34 35 35 35 34 34 35 34 33 34 35 36 35 35 36 36 37 37 37 37 37 38 37 36 36 36 36 36 37 39 39 38 39 38 39 39 40 41 42 44 46 47 48 50 50 51 51 51 52 55 56 57 58 59 58 58 60 59 61 61 60 57
34 33 34 34 33 32 33 34 33 34 35 35 35 35 35 35 35 35 36 36 36 36 36 36 36 36 36 36 36 38 37 38 38 38 38 39 38 39 40 41 42 43 46 48 48 44 46 51 51 52 52 56 56 57 59 56 54 54 59 62 62 60 59
33 33 33 33 31 32 33 33 33 35 35 35 35 34 34 34 34 35 35 35 35 35 35 36 36 36 36 36 36 37 36 36 36 37 37 38 38 39 40 40 41 42 44 45 45 44 42 43 52 51 52 53 56 56 57 59 46 48 50 52 54 52 52
33 34 33 31 31 32 32 32 34 35 35 34 34 34 34 34 34 34 34 34 34 34 35 35 36 36 36 36 37 37 37 36 36 36 37 37 38 38 39 41 43 41 43 45 43 43 43 44 51 51 52 52 55 55 57 54 52 47 40 40 41 44 46
32 33 33 33 33 32 32 32 33 35 35 35 34 33 33 33 33 33 33 33 36 35 34 35 35 35 35 36 37 37 36 36 36 36 37 37 38 38 39 40 42 41 42 43 41 42 43 45 51 52 52 52 52 54 56 54 52 50 51 51 50 49 47
34 35 34 34 33 32 33 32 34 34 35 33 33 33 33 32 32 32 32 32 33 33 33 34 35 35 36 36 37 37 37 37 37 37 37 36 37 38 39 39 40 38 38 39 40 40 41 41 49 52 53 52 52 52 54 53 53 54 53 51 50 50 49
33 34 34 34 33 32 32 32 34 34 34 33 33 33 33 32 32 31 31 32 32 32 34 34 35 35 36 36 37 37 38 38 38 38 37 37 37 38 39 39 40 39 38 39 39 39 40 41 42 51 54 53 52 56 49 52 51 46 51 48 48 48 48
35 36 35 33 31 30 30 32 34 34 33 33 33 32 32 31 30 30 30 31 31 32 33 36 34 35 36 36 36 37 39 40 40 39 38 37 37 38 39 40 41 40 39 39 39 40 40 41 41 48 54 47 43 43 52 51 50 49 47 47 47 47 47
34 35 34 34 32 30 30 32 33 34 33 33 32 31 31 30 30 29 29 30 30 30 31 32 35 35 35 36 36 37 37 38 38 40 39 38 38 38 39 40 41 41 40 40 39 40 40 41 42 48 48 40 42 42 45 49 47 47 45 44 45 45 45
31 32 32 31 30 29 30 32 32 33 32 32 31 30 29 29 29 29 28 29 30 30 31 31 33 34 35 36 36 37 37 37 37 39 39 39 39 40 41 42 43 41 41 40 40 40 41 42 47 47 40 40 41 42 48 47 47 47 43 43 44 44 45

ECMWFFLT1_sfc_dewp_012.txt.gz
Dewpoint
58 53 56 55 59 60 59 56 60 61 59 58 59 53 57 57 58 59 59 59 58 55 56 56 58 58 59 60 61 62 62 62 63 63 62 62 62 61 63 62 62 61 61 59 56 53 53 52 54 55 55 55 54 53 52 52 52 52 56 56 54 54 54
54 55 53 53 55 57 56 59 59 56 58 57 56 58 57 57 57 57 58 58 58 57 54 54 55 55 57 59 60 61 62 63 62 62 63 62 62 61 61 61 61 61 62 61 61 59 54 51 51 54 54 55 57 58 56 54 54 56 56 56 53 53 55
54 54 55 53 57 55 56 57 58 57 59 61 58 56 57 55 57 57 57 57 58 56 56 53 54 55 56 56 56 58 61 62 63 63 62 62 62 61 61 60 60 60 60 59 60 58 58 55 52 51 56 55 56 56 59 57 55 56 56 57 56 53 53
54 55 56 53 56 55 55 55 57 58 60 57 60 59 57 55 57 57 56 55 56 56 55 54 54 53 54 56 58 59 58 59 60 62 62 63 62 61 61 61 60 60 59 58 57 57 55 54 57 55 54 52 54 55 56 57 55 54 53 55 56 54 53
54 55 55 54 55 55 56 55 57 55 54 55 55 56 57 57 57 57 57 56 55 56 55 55 54 53 54 55 56 56 57 58 59 61 62 63 63 62 62 62 62 62 60 59 58 56 56 55 55 58 57 57 55 52 53 56 56 53 51 50 53 54 54
55 54 54 56 55 55 55 54 55 54 53 54 55 55 56 55 55 55 56 56 55 55 55 54 54 54 55 55 54 55 56 56 57 59 61 62 62 62 62 62 63 62 61 61 59 57 57 61 59 57 58 61 59 60 58 55 54 52 50 51 51 52 53
54 54 55 54 55 55 54 55 55 54 54 54 53 54 55 55 55 55 55 55 54 53 52 52 53 53 53 52 53 53 54 56 57 57 57 60 63 62 63 62 63 63 62 62 61 60 60 62 60 59 59 61 61 58 60 58 54 52 51 51 51 51 52
54 54 54 53 54 54 55 54 54 54 54 53 53 54 55 55 55 55 54 53 52 52 52 52 52 53 53 53 52 53 54 54 54 55 56 57 59 61 62 62 62 63 62 61 62 62 61 61 61 61 60 57 57 58 58 60 58 54 52 51 51 51 51
52 53 52 52 55 55 55 55 54 55 54 54 54 54 55 54 54 53 52 52 51 51 51 51 51 51 52 52 52 53 53 54 54 55 55 55 57 60 61 62 62 61 62 62 62 62 62 62 62 62 61 59 57 55 58 57 59 58 57 57 52 50 50
53 52 52 53 53 55 55 55 55 55 55 55 54 55 54 53 53 53 51 51 52 52 51 51 51 51 51 52 52 52 52 53 53 53 55 55 55 56 59 62 62 61 61 61 62 61 61 61 62 62 62 60 59 56 55 56 57 58 56 53 52 49 49
52 52 53 53 54 54 54 54 54 52 52 53 52 53 54 54 53 51 51 50 51 50 50 49 48 47 49 50 50 51 52 53 53 53 53 54 54 55 56 58 61 61 61 61 60 61 61 61 62 62 62 62 61 58 57 55 56 59 60 61 58 53 54
52 51 52 54 53 52 51 52 52 52 53 53 52 52 51 49 49 50 50 50 50 49 49 49 49 49 49 49 50 50 51 52 52 52 53 53 54 54 55 55 57 60 61 61 61 60 61 62 62 61 61 62 62 61 59 58 56 58 61 59 60 58 60
50 50 51 51 51 51 50 51 51 51 52 51 50 50 48 47 48 48 47 47 47 47 47 47 46 46 47 48 49 49 49 50 50 51 51 52 51 53 53 54 55 55 58 60 60 61 60 61 61 61 61 61 62 62 61 59 57 55 60 61 61 59 63
51 50 50 51 51 50 51 51 51 52 51 50 49 48 47 46 45 45 44 44 44 45 46 46 47 47 47 46 47 48 48 48 48 49 50 51 51 51 51 51 52 54 56 57 58 60 60 60 61 61 61 60 61 62 61 60 58 57 59 61 62 62 62
51 50 51 51 50 50 50 51 52 50 49 48 48 46 45 46 45 45 43 42 43 43 44 44 44 45 44 45 45 48 48 48 48 48 50 50 50 51 51 51 50 51 52 54 56 56 58 59 60 60 60 60 60 60 61 60 59 58 57 59 60 63 62
51 51 51 50 50 49 50 50 49 49 48 48 47 47 46 45 44 43 41 42 41 41 42 42 44 45 45 44 43 44 46 46 47 48 48 49 49 49 50 51 51 51 53 52 53 55 57 57 58 58 59 60 59 59 60 61 59 58 57 58 60 60 61
51 50 50 50 50 50 50 50 49 48 47 48 46 47 46 44 43 43 42 41 41 41 42 42 43 43 42 42 42 42 42 44 44 46 47 47 47 48 49 50 50 51 51 52 52 52 55 57 57 56 57 59 59 59 58 59 59 57 57 57 58 59 60
50 50 50 50 50 50 49 48 49 47 47 47 46 46 45 44 43 42 43 41 40 40 41 41 42 42 43 43 43 42 42 42 43 44 45 46 49 48 48 49 50 50 50 51 51 52 52 53 54 56 56 57 58 59 59 58 58 58 56 56 57 60 60
50 49 49 49 49 49 49 48 47 48 46 45 45 45 44 43 43 41 40 40 40 40 40 41 41 41 42 42 43 43 43 43 43 42 43 44 45 46 47 48 48 49 50 50 51 51 52 52 52 53 55 57 57 58 59 59 58 57 57 55 56 59 60
49 49 49 49 49 48 47 48 47 44 44 44 43 43 42 41 41 41 40 40 40 40 41 41 42 42 42 42 42 42 43 43 43 43 43 43 44 44 46 47 48 48 49 50 50 51 51 52 54 53 53 55 56 56 58 60 59 58 57 56 55 58 58
49 48 49 49 48 48 47 46 46 44 44 43 43 41 40 40 40 40 40 40 41 41 41 41 41 41 41 41 42 42 42 43 43 43 43 43 44 44 45 46 47 47 48 49 50 50 51 51 52 52 53 54 55 56 57 58 60 60 59 57 56 56 58
48 47 47 47 47 46 45 45 45 43 44 43 44 41 40 40 39 38 38 39 39 40 41 42 41 40 41 41 42 42 42 42 42 42 42 42 43 43 43 44 46 47 49 49 47 47 48 49 52 52 53 53 55 57 57 57 58 59 59 58 58 58 58
46 47 47 46 44 45 43 45 45 44 42 41 40 41 40 40 39 39 39 39 39 41 42 42 43 41 41 42 41 41 42 41 41 41 42 42 43 43 44 44 46 47 47 46 45 44 44 44 45 48 49 50 54 57 58 58 58 59 59 58 58 58 57
44 44 44 44 45 43 42 43 44 41 42 42 42 40 40 38 38 39 38 38 39 41 41 41 40 38 38 39 41 41 41 41 40 40 40 41 40 41 42 42 44 45 46 46 46 44 43 43 43 43 44 44 47 51 55 58 58 58 58 57 58 58 57
42 42 42 40 41 40 43 42 41 40 41 41 41 42 40 38 38 38 39 38 38 39 39 40 38 38 38 38 39 41 40 40 40 40 40 40 40 40 40 41 42 44 45 46 46 47 46 44 43 43 42 42 42 42 45 53 56 57 59 58 57 57 57
39 40 40 40 41 43 41 41 40 39 39 42 42 38 37 38 38 38 37 36 37 37 37 38 37 37 37 37 37 38 39 39 39 39 39 39 39 39 39 40 41 42 43 45 47 47 46 46 45 43 43 43 43 42 41 41 46 56 59 59 58 58 58
40 42 44 42 42 40 41 39 40 41 42 40 40 41 39 38 37 37 36 36 36 36 37 38 37 37 37 36 36 37 39 38 38 38 38 38 38 39 39 39 39 40 41 42 43 45 46 47 47 49 49 48 48 47 43 42 42 43 50 59 58 57 58
41 40 40 40 43 42 41 40 39 39 39 39 41 40 38 37 37 37 37 36 36 36 37 37 36 36 36 36 36 36 37 38 38 37 38 38 38 38 38 39 39 39 39 40 42 43 45 46 48 51 51 51 50 50 50 50 49 49 52 56 59 59 60
43 39 38 39 39 39 41 41 39 40 40 38 40 41 38 38 37 36 36 35 35 35 36 36 35 36 36 35 36 37 36 37 36 37 37 38 38 38 38 37 38 38 38 39 40 39 40 42 43 44 46 48 51 52 52 50 48 48 51 54 57 59 60
42 40 39 39 38 40 41 40 40 41 39 40 40 37 37 37 36 35 35 35 35 34 35 35 35 35 35 35 36 36 36 36 36 36 36 36 36 36 37 37 37 37 38 38 38 37 38 39 40 41 43 45 48 51 52 54 48 45 46 47 50 52 53
35 39 41 38 40 42 41 40 37 39 37 36 37 36 36 35 35 35 34 34 34 34 34 35 35 35 35 35 35 34 36 36 35 35 35 36 37 36 37 40 40 38 38 38 37 37 37 39 40 41 42 43 45 47 51 53 55 52 45 46 47 49 49
38 38 37 40 43 41 40 38 36 35 40 38 38 36 34 33 33 34 34 34 37 35 34 34 35 34 34 35 35 34 35 34 34 34 35 35 35 36 36 38 40 39 38 38 37 37 37 38 40 40 41 43 45 46 49 53 54 52 52 52 53 53 51
43 42 42 42 41 40 38 36 37 37 37 35 34 34 33 33 33 33 34 33 34 33 33 33 34 34 34 34 35 34 34 34 34 34 34 34 35 35 35 36 37 36 36 36 36 36 37 37 38 40 41 43 45 47 49 53 54 54 54 55 55 55 55
40 40 39 41 42 40 38 37 39 39 38 37 35 34 34 34 33 33 32 32 31 32 33 32 32 33 33 33 34 34 32 33 34 34 34 35 36 37 37 37 37 37 36 36 36 36 36 37 37 39 39 40 42 46 46 52 53 48 55 54 54 54 53
43 43 43 43 42 40 40 37 39 35 34 34 34 33 33 33 32 31 31 31 31 31 32 34 31 32 33 33 33 34 33 33 35 36 36 36 37 37 37 37 37 37 36 36 36 36 36 37 37 38 38 37 38 38 43 47 53 52 54 53 52 51 50
44 43 42 41 40 39 38 38 37 36 34 33 33 32 32 32 32 31 30 30 30 30 30 31 33 32 33 33 33 33 33 33 34 37 38 38 38 37 38 38 38 38 36 36 36 36 36 37 37 38 37 37 37 37 38 44 49 52 51 51 49 49 49
38 40 40 39 37 37 38 36 35 34 33 32 31 31 31 32 31 31 30 29 30 30 30 30 32 33 32 33 33 33 33 33 33 35 36 36 37 37 37 37 37 36 36 36 36 36 36 36 37 37 37 37 37 37 42 45 49 51 47 47 47 47 47

ECMWFFLT1_sfc_dewp_015.txt.gz
Dewpoint
48 49 51 51 52 55 52 51 53 53 55 54 54 53 51 51 54 53 52 52 54 53 56 55 54 54 56 57 59 59 60 60 61 62 61 61 61 60 62 62 62 61 62 61 60 58 55 53 53 55 56 56 54 53 52 52 51 52 55 56 55 55 58
50 50 52 52 49 53 51 53 52 49 53 49 50 52 53 52 53 52 54 54 54 54 56 54 53 54 54 54 54 54 54 57 60 61 61 61 61 61 60 60 61 60 61 60 59 60 58 56 54 54 53 55 56 55 54 53 52 53 54 56 55 55 55
51 51 50 50 51 49 50 51 51 51 52 51 52 50 50 51 52 53 52 52 53 53 55 53 53 53 53 53 54 55 55 55 57 59 60 61 61 61 61 60 59 59 59 60 59 59 59 58 56 54 53 54 54 55 57 55 53 54 53 55 56 55 54
50 50 50 48 50 48 50 49 51 51 54 54 55 53 51 50 50 54 52 52 53 54 54 52 52 53 53 53 53 53 53 53 54 56 58 60 61 61 61 61 60 59 58 58 58 59 59 57 57 56 55 54 53 55 57 57 55 52 54 55 55 55 54
49 48 49 45 50 48 50 50 49 51 49 51 51 50 52 53 53 51 53 53 52 51 52 53 53 52 52 52 53 54 54 55 55 56 56 57 59 61 61 62 61 61 60 59 58 58 58 58 58 56 56 55 54 54 55 58 58 56 54 53 54 54 54
49 48 49 47 51 48 49 48 50 48 49 50 50 49 51 51 52 50 50 51 51 52 53 53 53 53 53 53 52 52 52 53 54 54 54 55 58 60 60 61 61 61 61 60 60 59 58 58 57 55 55 56 56 58 60 58 57 57 56 54 53 54 53
49 50 49 50 50 50 50 49 49 49 49 49 49 48 50 50 51 52 52 51 51 51 51 51 51 52 52 52 52 51 51 52 53 53 54 54 56 57 60 61 61 62 62 62 61 60 58 58 57 56 55 56 58 56 58 59 59 55 56 55 54 53 53
51 51 51 51 51 50 50 50 50 49 48 49 48 49 52 50 51 51 51 50 50 50 50 50 51 50 50 51 51 52 52 52 52 53 53 53 53 53 55 59 61 61 61 61 62 62 61 60 59 58 58 55 56 56 57 59 60 56 57 56 53 52 53
53 52 51 51 52 50 50 49 50 49 49 50 49 49 50 49 50 50 51 50 51 50 50 51 50 50 51 50 51 52 51 53 53 53 53 52 52 53 54 55 59 61 61 62 62 62 62 61 61 60 59 58 55 54 54 55 56 58 58 56 57 55 53
51 51 50 49 50 51 50 49 49 50 50 49 50 51 50 50 50 49 49 49 50 50 50 50 50 50 50 50 49 49 49 50 51 51 52 51 51 52 54 55 57 59 60 61 61 61 61 61 61 61 60 59 58 55 53 52 53 55 58 57 56 59 56
50 50 50 49 49 50 49 50 49 49 48 49 50 50 49 49 50 53 49 49 49 50 50 49 49 48 48 47 47 48 49 50 51 51 52 53 53 53 53 54 54 56 59 60 60 61 61 61 61 60 61 61 60 57 55 53 53 56 57 59 58 56 61
50 50 50 50 50 49 49 49 49 49 49 49 49 48 48 48 47 48 48 48 49 49 49 49 49 49 49 48 48 49 49 50 50 49 49 50 51 52 52 52 53 54 58 60 60 60 60 60 61 60 60 61 61 59 57 56 54 56 58 57 59 62 64
50 49 49 49 49 49 49 49 49 49 49 49 47 48 47 47 48 47 47 47 47 47 47 48 48 47 47 46 47 48 48 48 48 48 48 49 50 51 51 51 51 53 54 57 59 60 60 60 60 61 60 60 60 60 59 58 57 55 58 58 59 61 62
49 49 49 49 49 49 49 49 49 48 49 47 47 47 47 47 47 47 46 46 45 44 45 45 46 45 45 46 46 47 47 48 48 48 48 47 48 49 50 50 51 51 52 54 56 59 60 60 60 60 60 60 60 60 60 59 58 57 58 58 59 60 62
49 49 48 49 49 49 49 48 48 48 46 47 47 47 46 46 47 46 45 44 44 44 44 44 44 45 45 45 45 46 46 45 46 47 48 47 47 48 48 48 48 49 50 51 52 54 57 59 60 59 59 60 60 60 61 59 58 58 57 56 58 59 60
50 48 48 48 48 49 48 48 49 47 47 47 47 47 47 46 46 45 45 44 43 43 43 43 43 44 43 43 43 43 44 44 44 45 45 46 47 47 47 47 47 48 49 49 50 51 54 56 58 59 59 60 60 60 60 60 59 58 57 57 58 58 58
49 49 48 48 48 48 48 48 48 47 47 47 47 47 47 47 46 44 44 43 43 42 42 42 43 43 43 43 43 43 43 42 42 42 43 44 45 46 47 47 47 47 47 48 48 49 50 52 55 56 58 59 59 60 60 60 60 59 58 57 57 58 58
49 49 48 48 48 48 48 48 48 47 47 46 47 46 46 46 45 44 44 43 42 42 42 42 42 43 43 43 43 43 43 43 43 43 43 43 45 44 45 46 47 48 48 47 47 47 48 49 51 54 56 56 58 59 59 60 60 60 59 58 57 58 58
49 48 48 48 48 48 48 47 47 47 47 46 45 45 45 44 44 43 43 43 42 42 42 42 41 42 42 42 43 43 42 42 43 42 43 43 43 43 44 43 44 45 46 46 46 47 48 49 50 50 51 54 56 56 58 59 59 59 59 58 58 56 58
49 48 48 48 48 48 47 47 47 46 47 46 45 44 44 43 43 42 42 42 41 41 41 41 42 42 42 42 42 42 42 42 42 43 43 43 43 43 43 44 44 44 45 45 46 47 47 48 49 49 50 51 53 55 56 57 58 58 58 57 57 57 57
48 48 48 48 47 47 47 46 46 46 45 43 43 43 42 41 41 40 41 41 42 43 42 41 41 41 41 42 42 41 41 42 42 43 43 43 43 42 42 43 44 44 45 45 45 46 47 47 47 48 49 49 50 52 53 55 56 57 58 57 57 56 56
48 47 47 47 47 46 46 45 44 44 43 43 44 43 41 41 40 40 40 40 40 40 41 41 42 41 41 40 40 40 40 40 40 40 40 40 40 41 41 41 41 42 45 47 45 45 46 46 47 45 45 46 47 48 50 54 55 55 57 57 57 57 55
47 46 46 45 45 44 44 44 43 43 43 42 40 41 41 41 40 39 39 39 39 40 40 41 42 40 39 39 39 39 40 39 39 40 40 40 40 40 40 40 42 44 44 43 43 42 42 42 44 45 45 45 45 46 47 50 52 55 55 56 57 57 56
46 45 44 44 43 43 43 43 43 42 41 41 40 40 40 38 38 38 38 38 38 39 40 40 39 37 37 38 38 38 38 38 38 38 38 38 38 39 39 39 40 41 42 42 42 41 40 41 41 41 42 42 44 45 45 46 48 51 54 55 56 57 57
44 43 43 42 42 42 42 42 41 40 40 39 39 39 38 38 38 37 38 37 36 37 38 39 37 37 37 37 38 38 37 37 37 37 37 37 37 38 38 38 39 40 40 41 41 41 41 41 40 40 41 41 41 41 41 45 46 48 50 53 55 55 56
42 42 42 42 41 41 41 40 39 38 37 39 39 38 37 36 36 37 36 36 36 37 37 38 37 37 37 37 37 37 36 36 36 36 36 36 36 37 37 38 38 39 40 42 43 40 40 40 40 40 41 41 42 42 41 40 41 46 48 50 52 54 56
40 40 40 40 40 39 39 38 38 37 38 38 37 36 36 36 36 36 36 36 37 37 37 38 37 37 37 37 36 36 36 36 36 35 36 36 36 36 36 37 37 37 38 39 39 39 39 39 40 40 41 42 43 45 44 43 42 40 43 48 50 51 54
38 38 38 38 38 38 38 37 37 37 36 36 36 35 35 34 35 37 36 37 36 36 37 37 36 36 36 36 36 36 36 37 36 35 35 35 35 36 36 37 37 37 37 37 38 39 39 39 39 40 40 40 40 41 42 43 45 47 45 45 48 50 52
37 37 37 37 37 36 36 36 35 36 36 36 35 35 35 35 35 35 36 36 35 35 36 36 36 36 36 35 36 36 35 34 34 34 34 34 35 35 35 35 35 36 37 37 38 37 38 38 38 38 38 38 39 39 40 41 42 43 45 47 48 49 51
36 36 36 36 35 36 36 35 35 35 35 34 34 34 34 34 35 35 35 35 35 34 34 35 35 35 35 35 35 34 33 33 33 32 33 33 33 34 34 35 35 36 36 36 37 36 36 37 37 37 37 37 38 39 39 40 40 40 41 42 42 43 44
35 36 36 36 36 36 36 35 34 34 34 33 33 33 33 33 34 35 34 34 34 34 34 35 35 35 35 35 35 34 34 33 32 32 32 32 33 33 34 38 38 35 36 37 37 36 36 37 37 37 37 37 37 37 38 39 41 41 42 43 43 42 42
35 35 36 37 36 35 34 33 34 35 34 33 33 33 35 34 33 34 34 34 38 35 33 34 34 34 34 34 35 34 32 31 30 30 30 30 31 32 32 35 37 37 36 36 35 36 36 37 37 38 38 37 37 37 37 38 39 40 42 46 50 51 48
35 35 36 36 36 34 33 33 34 34 33 33 32 33 33 32 33 33 33 33 33 33 32 32 33 33 34 34 35 34 32 30 30 30 30 30 31 31 31 32 34 34 34 35 35 35 35 36 37 38 38 38 38 38 39 39 40 40 47 48 49 51 51
35 35 35 34 35 34 34 35 34 33 32 32 32 32 31 31 32 32 32 32 32 32 33 32 32 33 33 34 34 33 31 31 31 30 30 31 30 31 31 31 33 34 34 35 35 35 35 35 36 37 37 37 37 38 38 39 40 39 41 43 44 46 49
37 38 36 36 35 34 34 34 33 33 32 31 30 30 30 31 31 31 32 32 32 32 33 35 32 33 33 33 33 33 32 31 32 31 31 30 31 31 31 32 33 34 35 35 35 35 35 35 36 37 37 36 36 36 37 38 38 39 40 40 42 44 46
38 39 37 36 35 32 33 34 32 32 31 29 29 29 30 31 31 31 31 31 31 31 31 32 34 33 33 33 33 33 33 32 33 31 31 31 31 31 32 33 34 36 35 36 36 36 36 36 36 36 36 36 36 35 36 37 37 37 38 39 40 41 43
32 32 33 31 28 29 32 31 31 31 30 29 28 29 30 31 31 30 30 29 30 31 32 32 33 33 33 33 33 33 33 33 33 32 32 32 32 32 32 32 33 34 35 35 36 36 36 36 36 35 35 35 35 36 37 37 37 37 37 38 39 41 42

ECMWFFLT1_sfc_dewp_021.txt.gz
Dewpoint
49 49 46 46 47 51 47 48 50 49 50 50 49 51 50 53 51 51 51 51 52 54 53 51 51 51 52 52 53 53 54 54 54 55 55 57 57 58 60 60 60 61 62 61 61 58 57 55 57 59 58 57 57 57 55 54 54 56 58 59 59 59 59
48 47 48 52 49 52 46 48 47 47 48 49 50 51 50 52 54 50 49 49 50 52 53 51 51 51 51 51 51 51 51 52 53 53 52 53 54 55 57 58 59 60 61 61 61 61 58 56 56 56 56 57 58 58 57 57 55 55 56 57 58 59 59
49 48 48 48 48 47 46 47 47 46 47 48 48 49 48 50 51 50 49 48 49 53 53 50 50 50 50 50 50 50 50 50 51 52 52 52 53 54 56 57 57 58 58 60 60 60 59 59 56 56 56 56 56 57 57 57 57 56 54 55 57 58 58
48 48 47 45 46 46 46 46 46 46 48 49 49 50 49 48 51 53 50 51 51 53 51 50 49 49 50 49 49 49 49 49 50 50 50 51 51 52 53 54 55 56 56 55 57 58 58 57 57 57 57 57 57 57 58 58 58 57 56 55 55 56 57
49 48 47 45 47 47 46 46 46 47 46 47 48 48 47 49 51 49 50 49 51 49 49 48 49 49 49 49 49 49 48 49 49 51 49 50 50 51 51 52 53 54 55 56 58 58 58 58 58 57 57 58 58 58 58 58 59 58 57 56 55 55 55
50 47 46 45 47 47 47 46 45 45 46 46 46 46 46 48 51 48 47 48 48 50 49 48 48 48 48 48 49 48 48 48 49 49 48 48 49 50 50 52 53 53 53 55 56 58 58 58 58 56 56 58 57 57 58 57 57 57 57 56 56 54 54
50 48 47 45 47 47 47 47 47 46 46 46 45 46 47 48 49 50 50 48 48 49 49 48 48 49 48 49 48 48 48 48 49 48 48 49 49 49 50 50 50 51 52 53 54 56 56 56 56 56 55 56 57 56 57 56 56 56 57 57 57 55 54
49 49 48 47 47 47 47 48 47 46 46 47 46 47 49 47 48 48 48 47 47 47 48 47 48 47 47 47 48 48 48 48 48 48 46 47 48 48 48 49 50 51 51 52 53 54 56 57 57 57 56 54 54 55 55 55 55 56 56 57 57 56 55
50 49 48 48 48 48 47 48 48 47 47 46 46 48 48 47 47 48 48 47 47 47 48 48 47 47 47 47 47 46 47 49 47 47 47 46 47 47 48 49 49 49 50 52 53 54 55 56 57 57 57 56 53 51 54 54 53 54 56 56 57 57 55
48 48 48 48 47 48 48 47 47 48 47 46 47 47 47 46 46 46 46 46 47 47 46 47 47 47 47 46 46 46 46 46 47 46 47 47 48 48 48 47 48 48 49 50 51 53 54 55 56 56 57 56 56 53 52 52 53 54 54 56 55 57 57
48 48 48 48 48 48 48 47 46 47 47 48 48 49 47 46 50 51 46 45 45 46 46 46 46 46 47 47 46 46 46 46 46 46 47 47 47 47 48 48 47 48 49 49 51 51 52 54 55 56 56 56 57 55 55 53 52 55 56 55 56 57 57
49 49 48 48 49 48 48 48 48 48 46 47 50 47 45 45 45 45 44 45 45 45 45 46 47 47 46 46 46 46 46 45 45 45 45 46 46 47 46 47 47 48 48 49 50 51 51 52 53 54 55 55 56 57 56 55 53 56 56 55 55 57 57
50 49 49 48 49 49 48 48 48 46 47 49 47 46 46 45 45 44 45 45 45 44 44 45 45 45 45 44 44 45 44 44 44 44 44 45 46 46 45 45 46 47 47 47 48 48 49 49 50 52 53 54 55 56 56 55 54 54 55 56 57 57 58
50 50 49 49 48 49 48 49 48 47 48 47 47 46 46 45 44 45 44 47 45 44 44 44 44 43 43 43 43 43 44 44 44 44 44 43 43 44 45 44 45 46 46 46 46 47 47 47 48 49 50 52 53 54 55 54 52 52 53 56 57 57 58
50 50 49 49 48 48 48 48 47 47 47 47 47 46 46 44 44 44 44 44 44 44 43 43 43 42 43 42 43 43 44 43 43 43 43 42 42 43 43 43 44 44 45 45 45 46 46 46 46 47 48 49 50 51 53 53 52 53 52 54 56 57 57
50 49 49 49 48 48 48 48 48 47 47 47 46 46 45 45 45 44 43 44 43 43 43 43 42 42 41 41 41 42 43 42 42 42 42 42 42 42 43 43 43 43 45 44 45 45 46 46 46 47 47 48 48 49 51 53 53 52 52 52 55 56 57
49 49 49 49 48 48 48 48 48 47 47 47 46 46 45 45 44 44 44 44 43 42 42 42 41 41 41 41 41 41 41 41 41 41 42 42 42 43 43 43 43 43 44 44 44 44 45 45 46 46 45 46 47 48 50 52 54 53 53 52 53 54 56
49 49 49 48 48 48 47 47 48 46 46 46 46 46 45 44 44 44 44 43 42 41 41 41 41 40 41 41 41 41 41 41 41 41 41 41 44 43 43 43 43 43 43 43 43 43 44 43 45 45 45 45 45 46 48 49 51 53 52 50 50 51 54
49 49 48 48 47 47 47 47 47 47 46 45 45 45 45 45 45 44 43 42 41 41 41 40 40 40 40 41 41 40 41 40 41 40 40 41 41 41 42 42 42 43 42 41 41 42 42 42 43 43 42 42 42 43 44 46 48 49 49 49 49 49 49
50 49 48 47 47 47 47 47 47 46 46 45 45 44 43 44 45 43 41 41 41 40 40 40 40 39 40 40 39 39 38 38 39 39 39 39 39 40 40 40 41 41 41 41 41 41 41 41 42 42 43 42 42 42 43 44 45 46 46 47 47 48 48
50 49 48 47 47 47 47 46 46 46 46 45 45 44 44 43 43 41 41 40 41 41 40 39 38 39 39 38 39 38 37 38 38 38 38 38 38 39 39 39 39 40 40 40 41 41 41 42 42 41 41 41 41 41 41 42 43 43 44 44 45 46 47
50 49 48 47 47 47 46 46 46 46 46 45 45 44 43 42 41 40 39 40 40 40 39 38 39 39 38 37 36 37 37 37 36 36 37 37 37 38 38 38 39 39 42 43 43 43 43 43 41 40 40 40 40 41 41 41 41 42 42 43 43 45 46
49 48 47 47 47 47 46 46 45 45 45 44 43 42 41 40 39 39 38 38 37 39 39 39 42 41 41 39 37 37 37 37 37 36 37 37 37 37 37 38 41 41 42 42 41 40 40 40 41 41 40 40 40 40 40 40 40 40 41 41 42 43 43
48 48 47 47 47 46 46 45 45 44 43 42 42 42 40 39 38 38 37 37 35 37 38 38 38 37 37 38 38 37 37 37 37 37 37 36 36 37 37 37 37 39 41 41 41 39 39 38 38 38 39 40 41 40 39 39 38 39 40 40 41 42 42
47 47 47 46 46 46 45 45 44 43 41 40 40 40 38 37 37 37 36 35 35 36 36 39 37 37 37 37 38 39 37 37 37 37 36 36 36 36 36 36 37 37 38 38 38 38 38 38 38 38 38 38 38 38 39 40 39 38 39 39 39 40 41
47 46 47 46 46 45 44 44 42 41 40 40 39 37 36 36 36 35 35 34 35 36 35 38 37 37 37 37 37 37 36 36 36 36 36 35 35 35 35 35 35 36 36 39 40 38 38 38 39 38 38 38 38 37 36 37 38 40 39 39 38 38 39
47 47 46 46 45 44 43 42 40 39 39 38 36 35 35 35 35 35 34 34 35 35 34 37 37 37 36 36 36 36 36 35 35 35 35 34 34 34 34 34 34 34 35 36 36 36 36 36 36 36 35 35 36 37 37 37 37 37 39 40 39 38 39
47 44 43 43 43 42 40 38 38 38 37 35 35 34 34 34 34 36 34 33 32 33 34 36 36 35 35 35 35 35 35 35 35 34 34 34 34 34 34 34 34 34 34 34 35 36 35 35 35 35 34 34 34 35 35 36 37 38 38 39 39 39 40
43 43 43 42 40 39 37 37 36 36 35 35 35 35 34 35 34 32 33 31 32 31 32 35 35 34 34 34 35 35 34 34 33 33 33 33 33 33 33 34 34 34 33 33 35 35 36 35 34 33 33 33 33 34 34 37 37 38 38 38 38 39 40
43 42 40 39 37 37 36 36 36 36 35 34 34 34 34 34 34 32 32 33 31 30 29 33 34 34 34 34 34 33 33 33 32 32 32 32 32 32 33 33 32 32 31 31 33 33 34 35 33 33 32 32 33 33 33 35 36 36 37 37 37 37 37
40 40 38 37 36 35 35 35 35 35 34 33 33 33 33 33 32 33 31 30 30 28 29 33 34 34 34 34 34 33 32 32 32 32 32 32 32 32 32 35 36 33 32 32 33 33 33 34 32 32 32 32 32 32 33 34 35 36 37 37 37 37 36
38 38 36 35 35 35 34 35 35 34 34 34 33 33 35 32 31 30 31 30 36 33 30 32 34 33 33 34 34 33 32 32 32 31 32 31 31 31 31 33 34 34 33 33 33 33 33 34 32 32 31 31 31 31 32 33 34 34 34 35 36 37 37
39 38 36 35 36 35 36 35 34 34 34 34 33 33 35 32 30 30 30 31 31 30 30 30 32 33 33 34 34 34 32 32 32 31 31 31 31 31 31 31 32 33 33 33 32 32 32 33 32 31 31 31 30 31 33 34 35 34 34 35 35 36 37
38 37 35 36 36 36 34 33 33 33 32 32 32 31 31 31 31 30 29 29 29 29 30 31 31 32 33 33 34 34 32 32 32 31 31 31 31 32 31 31 32 33 33 33 33 32 33 33 33 31 31 31 31 33 33 33 33 35 34 35 35 36 36
37 36 35 35 34 33 32 33 32 32 30 30 30 30 29 31 29 29 28 28 29 29 31 34 30 32 32 33 33 34 33 32 33 32 31 31 31 31 31 31 31 33 33 33 32 33 33 33 33 33 32 32 32 33 33 34 33 33 33 34 34 34 35
36 36 35 34 33 32 32 32 30 31 29 29 29 28 27 26 27 27 27 28 27 28 28 30 32 31 32 33 33 34 34 33 33 32 31 31 31 31 32 32 32 33 33 33 33 33 33 33 33 32 32 32 32 32 33 32 32 32 32 33 34 34 34
36 35 35 34 33 32 31 31 31 30 30 30 28 27 27 27 26 26 27 28 28 27 27 27 30 31 31 32 33 33 33 33 34 33 33 32 32 32 32 32 33 33 33 33 33 33 33 33 33 32 32 32 32 33 33 33 33 33 33 33 33 33 34

ECMWFFLT1_sfc_dewp_024.txt.gz
Dewpoint
46 47 47 46 47 50 49 49 49 49 50 50 50 51 52 54 51 51 51 52 52 52 53 51 51 51 51 52 53 53 53 54 54 53 53 55 55 55 58 58 60 61 61 61 60 58 57 56 57 61 59 59 60 60 59 57 56 58 60 61 60 60 60
47 48 49 51 49 52 48 48 47 48 48 49 50 50 51 54 54 50 50 51 51 52 53 51 51 50 50 50 50 50 51 52 54 54 53 53 54 55 55 55 58 58 58 61 61 61 58 56 55 56 56 58 59 60 61 60 59 59 58 59 59 60 61
49 47 48 48 48 46 47 47 47 47 48 48 49 49 49 50 50 51 51 51 52 53 53 49 49 49 50 50 50 50 50 51 52 53 53 53 53 54 55 55 54 55 55 58 58 56 58 58 55 54 56 56 56 58 59 59 60 60 60 59 59 58 60
47 47 46 46 47 46 46 46 46 47 48 49 48 50 49 51 53 54 51 51 52 54 51 49 49 49 50 50 50 50 50 50 51 51 51 52 52 52 53 54 54 55 54 54 54 55 55 55 54 54 54 54 55 55 58 59 59 59 59 59 58 58 58
48 47 46 46 47 46 46 47 46 47 47 47 48 49 48 50 51 51 52 50 50 49 49 50 50 50 50 50 50 50 50 50 51 51 50 50 51 51 52 53 54 54 55 54 55 55 55 54 54 53 54 55 55 56 56 58 59 59 59 58 58 58 58
48 47 46 46 47 46 46 46 46 46 46 47 47 48 48 49 51 48 49 49 50 51 50 49 49 49 49 50 49 49 49 50 50 49 49 49 50 51 51 52 54 54 54 55 55 55 56 56 55 53 53 54 54 54 55 56 57 58 58 58 58 57 57
48 47 46 46 46 47 47 47 47 46 47 47 46 48 48 50 50 50 49 49 49 51 50 49 50 50 49 49 48 49 49 50 50 49 49 49 50 50 51 52 51 52 53 54 54 55 55 55 54 53 53 53 55 53 55 56 57 54 56 58 58 58 58
49 48 46 46 46 47 47 47 47 46 46 46 47 47 50 49 49 49 49 49 49 49 49 49 49 48 49 49 50 49 49 49 48 49 48 48 48 49 49 50 51 52 51 51 53 54 55 55 55 54 54 51 51 52 52 55 55 55 54 56 57 57 58
51 50 48 48 47 47 47 47 47 47 47 47 46 49 49 49 49 50 50 48 48 49 49 48 48 48 48 49 48 47 48 50 48 48 48 48 48 49 49 49 50 49 50 51 52 53 54 55 55 56 55 54 51 49 51 51 53 53 55 55 57 58 58
50 49 49 48 47 47 47 47 47 47 47 47 47 49 49 48 49 48 48 48 48 47 47 48 48 48 48 48 47 47 47 47 50 48 48 48 48 49 49 49 49 49 50 50 51 52 53 54 55 55 56 55 53 51 49 49 49 51 54 57 54 57 58
49 50 49 49 48 48 47 47 47 47 47 48 49 49 48 48 48 51 48 47 46 47 47 47 48 48 48 48 47 47 47 48 47 48 49 49 48 48 50 48 48 48 49 50 50 51 52 53 53 54 55 55 56 53 51 49 49 51 53 57 56 55 57
49 49 49 48 48 47 47 48 47 48 48 48 50 49 47 48 49 47 46 46 46 47 46 47 47 47 46 46 48 46 46 46 46 46 46 48 48 48 47 47 47 47 48 48 49 50 51 51 52 52 53 54 54 55 53 52 48 50 56 55 57 58 59
49 49 49 48 48 47 47 48 48 47 47 49 49 48 47 48 47 46 45 46 45 45 45 46 46 46 45 45 45 44 45 45 45 45 45 46 46 45 45 45 45 46 47 47 47 48 48 49 50 51 51 52 53 54 54 53 49 47 52 53 55 57 59
49 49 49 48 48 48 48 48 48 48 48 48 48 47 47 47 46 46 45 47 45 45 45 45 45 44 45 44 44 44 44 44 44 44 46 44 44 44 45 44 44 45 46 46 46 47 47 47 48 49 50 51 51 52 53 52 50 48 49 55 56 57 58
50 50 49 48 48 48 48 48 48 48 48 48 47 47 46 46 46 45 45 46 45 45 44 44 44 44 44 43 43 44 44 43 43 43 43 43 43 44 44 43 43 44 44 45 46 45 45 46 46 46 47 48 49 49 52 51 50 50 48 50 54 56 58
50 49 49 49 48 48 48 48 48 48 48 47 48 47 46 46 45 45 45 45 44 44 44 44 43 43 43 43 42 42 44 43 43 43 43 43 42 43 43 43 42 44 45 45 45 45 46 46 47 46 47 48 48 48 49 50 50 49 49 48 52 53 55
49 49 49 49 49 48 48 48 49 48 47 47 47 47 46 46 45 45 45 45 44 44 43 44 43 43 43 42 42 42 42 43 43 43 43 42 42 43 42 41 41 42 44 44 44 45 45 45 46 46 46 47 48 48 49 50 50 49 48 47 49 51 52
49 49 49 49 49 49 48 48 48 47 47 47 46 46 46 45 45 44 44 44 44 43 43 42 42 42 42 42 42 42 42 42 42 42 42 42 44 43 41 41 40 42 42 42 42 42 42 43 42 44 44 44 45 45 46 47 48 49 48 46 46 48 51
50 49 49 49 49 49 48 48 48 47 47 46 46 46 45 45 45 44 44 44 43 43 42 42 41 41 41 43 42 42 43 42 42 41 40 40 40 41 40 40 40 41 41 41 41 41 42 42 42 43 42 42 42 43 44 45 46 47 47 47 47 46 47
50 50 49 49 49 48 48 48 48 47 47 46 45 45 45 45 46 44 44 43 43 42 42 41 41 41 41 41 41 40 39 39 39 39 39 39 39 39 39 39 40 40 40 40 41 40 41 41 42 42 43 43 43 43 43 43 44 44 45 45 44 46 46
50 50 49 48 48 48 48 47 47 47 47 46 45 45 45 45 45 44 43 43 42 42 41 40 40 41 41 41 41 40 39 39 39 38 39 38 39 39 39 39 39 39 40 40 40 40 41 41 41 42 43 43 42 41 41 41 42 43 44 43 44 43 45
50 50 49 48 48 47 47 46 47 47 46 46 46 45 45 44 44 42 41 41 41 41 40 40 41 40 40 38 38 38 38 38 38 38 38 38 38 38 39 39 39 39 41 42 42 42 42 42 42 41 41 41 41 40 40 40 41 42 42 41 41 43 43
50 49 49 49 48 47 47 47 46 46 46 45 45 45 44 43 43 41 40 39 39 39 39 41 44 40 41 41 39 38 38 38 38 38 38 38 38 38 38 39 40 41 41 42 41 40 40 40 41 41 40 40 40 39 39 39 39 39 40 38 39 41 40
49 49 49 49 48 47 47 47 47 47 46 45 44 44 43 41 40 39 38 38 38 38 39 39 38 37 37 38 39 38 38 37 38 37 38 37 37 37 38 37 38 39 40 40 40 39 38 38 38 39 39 40 40 40 39 38 38 39 39 38 39 39 40
49 49 49 48 48 47 47 47 47 46 45 45 44 43 42 39 38 38 37 36 37 38 38 39 37 37 37 36 38 39 37 36 37 36 36 36 36 37 36 37 37 38 38 38 38 38 38 38 37 37 37 37 37 37 38 39 38 38 38 37 37 38 39
48 48 48 47 47 47 47 46 45 44 44 44 42 41 38 37 37 36 36 35 37 39 36 38 36 36 36 35 35 36 35 35 35 36 35 35 36 35 35 36 36 36 36 37 38 37 38 38 38 38 38 38 38 38 36 36 37 40 39 37 36 36 36
48 47 47 47 47 46 46 46 45 44 43 41 40 38 37 37 36 36 35 36 35 36 35 36 36 36 35 35 34 35 35 34 35 35 35 35 35 35 35 35 34 34 35 36 36 36 36 36 36 36 37 36 36 37 37 36 36 36 38 39 38 36 37
47 46 46 46 45 46 46 44 43 42 41 40 39 38 38 35 35 37 36 34 34 34 35 38 35 35 35 35 34 35 35 35 34 34 35 35 34 34 34 35 34 34 34 35 35 36 35 35 36 36 36 35 35 35 35 36 37 37 38 38 38 38 38
45 44 44 45 45 44 43 42 41 40 39 39 38 38 36 36 35 34 34 33 34 33 33 35 35 35 35 34 34 34 34 33 33 33 33 34 33 34 34 34 34 33 33 33 35 35 35 35 34 33 33 33 33 33 34 36 36 36 37 37 37 37 38
45 44 44 44 43 42 41 40 39 38 37 36 35 34 34 33 32 32 34 33 32 32 31 35 34 35 34 34 34 33 32 33 33 32 32 33 33 33 34 33 33 33 33 33 34 33 34 35 32 32 32 32 33 33 33 34 35 35 36 36 36 36 36
44 44 44 44 42 41 39 38 37 37 35 34 34 33 32 32 31 32 33 33 31 31 31 33 35 34 34 33 34 33 32 32 32 32 32 33 33 33 33 35 36 33 34 34 34 34 34 34 32 31 31 31 31 31 31 33 34 35 35 36 36 36 35
44 43 41 40 39 38 37 37 37 35 35 34 34 33 34 30 32 32 32 31 38 33 32 34 35 34 34 34 34 33 32 32 31 31 31 31 32 32 32 33 34 33 32 33 33 33 33 33 31 31 30 30 30 30 30 31 31 32 32 33 33 34 35
41 39 38 38 39 39 38 37 36 35 35 34 34 34 34 31 31 31 32 35 35 35 32 31 34 34 34 33 34 33 32 32 31 31 31 31 32 32 31 31 32 32 32 32 32 32 33 33 32 31 30 30 29 29 30 31 31 31 31 32 32 33 34
39 38 38 38 38 39 39 37 36 36 35 34 34 34 33 32 31 31 31 31 30 31 32 31 33 34 33 33 33 33 32 31 31 31 31 31 31 31 31 31 32 33 33 33 33 33 33 33 33 33 32 31 30 31 31 31 31 33 31 31 32 32 32
39 39 39 39 37 37 37 35 34 35 33 33 31 31 32 33 30 30 29 29 31 31 32 36 33 33 33 33 33 33 32 32 33 31 32 31 31 31 31 31 31 32 33 33 33 33 33 33 33 34 33 33 33 33 32 32 32 31 31 31 31 31 32
39 39 38 37 35 36 34 33 33 33 32 31 31 30 29 29 30 29 29 30 30 30 30 30 33 33 32 32 32 33 33 32 33 32 32 31 31 31 31 31 32 33 32 32 32 32 33 33 33 32 33 33 33 33 33 33 33 32 31 30 30 30 30
38 38 37 36 36 34 34 34 32 31 31 31 30 29 28 29 28 29 29 29 30 30 30 29 30 33 31 31 32 32 32 33 33 32 33 32 31 31 31 31 31 32 33 33 33 33 33 33 33 33 33 33 33 33 33 32 32 32 31 30 30 30 30

ECMWFFLT1_sfc_dewp_027.txt.gz
Dewpoint
53 52 55 56 58 56 54 54 55 55 55 54 55 55 55 55 55 55 56 55 52 51 49 49 50 51 52 52 54 54 54 55 56 55 55 55 56 56 58 59 60 61 62 61 61 59 58 58 59 62 60 60 60 61 60 59 59 59 60 61 59 59 61
54 55 54 55 55 57 55 55 55 54 56 57 54 55 56 53 54 55 55 53 52 50 48 49 50 50 52 52 52 52 53 53 54 55 55 54 55 55 56 57 58 58 59 60 59 59 58 57 58 58 59 62 62 64 64 61 60 62 61 59 59 59 60
54 55 54 55 56 56 54 55 55 54 54 55 56 55 55 53 54 54 53 53 54 51 49 50 51 52 53 52 53 53 53 52 52 52 53 53 53 54 55 56 55 55 54 55 55 55 56 57 55 56 57 57 57 61 60 63 60 58 58 61 61 59 60
55 55 54 55 54 54 54 54 53 53 54 54 55 56 56 54 56 55 54 54 53 53 50 49 50 49 51 52 53 53 53 52 50 51 52 53 52 52 53 53 53 53 53 52 52 52 53 53 52 51 53 53 53 54 57 59 58 55 57 62 62 60 60
56 55 54 54 54 54 54 53 53 53 53 54 55 53 55 56 56 55 55 54 52 52 51 51 50 49 50 50 50 51 51 52 52 51 52 52 52 50 52 51 51 52 52 51 52 53 53 51 52 50 49 50 50 50 52 56 55 54 55 56 56 57 60
56 55 54 54 55 53 52 53 53 51 52 51 52 52 55 56 55 55 54 52 52 53 52 50 51 50 49 48 48 49 50 50 50 51 50 52 52 51 50 51 50 49 49 51 51 52 53 53 52 49 49 48 49 50 49 50 50 49 50 51 53 54 55
55 56 55 54 55 53 53 53 53 51 51 52 53 53 55 56 55 55 55 54 52 52 53 53 52 50 49 45 47 47 48 49 50 50 49 50 51 51 51 49 48 47 48 50 51 51 51 52 50 50 50 49 51 47 47 47 47 46 46 51 51 51 52
55 54 54 54 55 54 54 54 54 54 52 53 53 56 56 56 56 55 55 54 53 53 53 53 52 51 50 46 46 49 49 48 48 47 47 47 47 47 49 47 48 47 47 46 48 49 49 52 52 52 51 47 47 48 47 46 46 47 47 47 48 49 50
54 55 54 53 54 55 55 54 54 55 54 55 56 56 57 56 55 55 54 53 52 52 52 51 50 48 49 47 46 48 48 48 48 47 47 47 47 48 47 48 46 45 47 47 47 47 47 50 51 52 51 50 45 43 45 46 46 45 48 48 47 49 50
55 55 54 54 54 55 55 55 54 54 56 55 55 57 56 56 55 55 53 53 53 52 52 51 50 49 49 47 47 47 47 48 47 46 47 46 47 46 46 47 45 45 46 48 47 47 48 49 48 49 49 49 49 46 43 43 45 46 47 49 47 48 50
54 55 55 55 55 53 54 54 54 54 53 54 55 56 56 55 56 54 53 52 52 52 51 51 49 48 49 47 47 46 47 48 47 48 48 47 47 47 46 46 45 44 46 47 46 48 48 48 47 47 46 48 48 47 46 45 44 47 47 49 49 48 51
54 54 55 55 55 54 53 53 53 53 55 54 54 55 55 54 54 54 53 50 51 51 51 51 50 49 47 47 47 45 48 47 45 46 47 47 47 46 46 45 45 44 45 45 45 46 47 46 46 45 45 47 48 49 48 46 44 45 49 49 51 50 49
52 53 54 55 55 54 54 53 53 54 54 53 54 54 53 53 53 52 51 50 50 49 49 50 49 49 48 47 46 44 47 47 43 44 45 46 43 45 44 42 42 41 41 39 41 42 42 45 46 45 46 46 47 48 48 46 45 44 46 47 47 47 47
54 53 54 54 55 55 55 54 54 54 53 54 54 54 53 52 51 51 49 48 46 48 49 50 50 48 47 47 46 47 46 44 42 43 44 46 45 43 41 39 38 38 41 39 38 38 39 42 43 44 46 45 45 46 46 46 45 44 46 48 48 47 48
54 54 54 54 54 54 54 54 54 53 53 53 53 52 51 53 51 50 48 46 46 46 47 47 48 47 46 47 48 49 47 44 43 43 44 42 43 42 42 39 37 39 38 38 40 34 33 36 38 38 40 44 42 44 47 46 44 45 45 46 46 48 49
54 55 55 54 54 53 54 54 53 53 52 53 53 52 51 52 51 49 48 47 46 47 47 47 48 47 46 45 44 46 46 44 44 44 43 41 37 39 40 40 38 39 41 40 40 40 40 38 37 37 41 42 42 44 44 45 44 44 43 44 46 44 46
55 55 55 54 55 55 54 54 53 53 52 53 51 52 52 51 50 49 48 46 46 47 47 48 47 46 44 43 43 43 44 44 43 42 40 39 37 39 39 39 39 38 39 39 38 38 37 39 39 38 39 41 42 43 45 46 45 44 43 42 44 42 43
55 55 55 54 55 55 55 54 53 51 52 52 51 52 51 51 50 48 49 46 46 47 47 46 46 46 46 45 44 44 43 42 42 40 41 40 39 39 38 38 38 38 38 39 39 38 37 40 36 38 39 37 38 40 43 43 43 42 42 42 42 43 44
56 55 55 55 55 55 54 54 53 53 51 51 51 51 51 50 49 47 46 45 46 46 46 46 45 44 44 44 44 44 42 41 40 39 39 39 38 39 40 38 38 37 37 38 38 38 39 40 38 39 38 37 36 38 41 42 42 42 41 41 42 41 42
57 56 55 55 55 54 54 54 53 52 53 52 51 53 52 50 50 47 46 47 47 47 47 46 45 45 43 42 41 40 41 41 40 41 39 38 38 39 38 37 39 38 38 38 39 38 39 40 40 41 40 41 40 40 41 41 40 40 40 40 40 40 40
57 57 55 55 54 54 54 53 52 51 51 51 50 51 50 50 50 48 48 47 48 49 46 44 43 42 41 41 41 40 40 41 39 39 40 38 39 38 38 37 37 37 37 38 39 39 40 40 40 40 40 41 41 40 40 39 39 38 39 40 39 38 38
56 56 55 55 54 54 54 53 52 51 52 52 52 51 51 52 51 49 48 48 47 46 45 43 42 41 41 39 39 39 38 35 37 36 36 36 37 37 37 38 38 38 39 40 41 41 41 41 39 38 39 40 40 39 39 38 38 37 38 38 38 39 39
55 55 55 55 54 54 53 53 52 51 50 50 50 51 51 51 50 49 47 46 45 45 44 43 42 40 40 35 34 33 36 35 34 34 35 35 36 36 37 38 39 40 41 41 41 40 40 40 41 40 37 38 38 39 38 38 37 36 37 36 37 37 37
53 54 54 55 55 54 52 52 51 50 49 49 51 50 50 49 50 49 46 44 43 43 42 39 38 37 37 38 35 35 33 33 34 34 34 34 34 35 35 34 36 38 39 39 39 39 39 38 38 38 39 40 40 38 37 37 37 37 37 36 36 37 36
51 52 53 53 54 53 52 51 50 50 50 52 51 51 51 49 48 46 44 42 42 41 38 38 36 36 37 36 37 33 34 33 34 33 33 33 33 34 34 36 37 38 38 37 36 35 36 37 37 37 37 37 37 37 38 38 37 36 37 35 35 36 36
49 51 52 52 53 52 51 50 50 50 50 51 51 49 48 47 45 43 42 40 39 37 33 37 36 36 36 35 35 35 30 33 33 32 33 33 34 35 35 36 36 37 37 37 37 36 36 36 37 37 38 38 38 37 36 36 37 39 37 36 36 36 35
48 50 52 52 52 52 51 50 51 51 51 50 49 47 45 44 43 42 41 40 37 35 33 36 35 36 35 35 34 34 33 34 34 33 33 34 35 35 35 35 35 35 36 36 36 36 36 36 36 36 35 35 35 36 36 37 36 36 38 38 36 35 36
47 49 50 50 51 51 51 51 50 50 49 48 46 44 43 42 42 41 39 38 36 36 35 36 35 35 34 35 34 35 34 35 34 34 34 35 35 35 35 36 36 35 35 35 36 36 35 34 34 34 34 34 34 34 34 35 36 37 38 38 37 36 36
47 48 49 49 50 51 51 50 50 49 48 46 44 43 43 42 41 40 39 40 38 36 39 35 35 35 34 34 34 34 32 33 32 32 33 34 33 34 34 35 35 35 35 35 34 34 35 34 33 33 33 33 33 33 34 34 35 36 36 36 36 36 36
46 47 48 48 49 50 50 49 48 46 45 43 41 41 40 39 36 36 37 36 35 35 35 36 34 34 34 33 34 30 31 28 29 31 32 33 33 33 35 34 33 33 33 33 33 34 34 35 33 32 32 33 33 33 33 34 34 35 35 35 35 35 35
45 46 47 47 49 50 49 47 45 44 42 40 39 39 41 39 37 37 35 35 35 34 33 35 35 35 34 34 34 31 27 28 30 30 31 32 33 33 33 34 34 33 33 32 33 33 34 34 32 31 31 31 31 31 31 32 33 33 34 35 35 35 35
45 46 47 48 49 47 44 43 42 41 41 41 40 39 37 35 35 37 37 38 38 36 34 35 36 35 35 35 34 31 28 27 28 29 30 30 32 32 31 32 33 33 33 33 33 33 33 33 31 31 31 31 30 30 31 32 32 31 32 32 33 33 34
46 46 47 48 45 43 42 41 42 41 40 41 39 35 34 34 34 35 37 37 37 37 36 35 36 34 35 35 35 31 29 27 28 28 29 30 30 31 31 30 31 32 33 33 33 33 33 33 32 31 31 31 30 30 31 31 32 32 31 32 32 32 32
47 47 46 43 42 41 41 41 40 38 39 40 40 39 36 36 36 36 36 36 36 38 38 37 36 34 35 35 34 34 30 29 29 28 29 29 29 29 29 29 31 31 32 33 33 33 33 33 33 32 32 31 31 32 33 32 32 33 32 32 32 32 31
47 46 42 41 40 40 41 41 42 40 39 40 39 38 38 39 40 39 39 39 37 38 37 37 36 35 34 34 34 34 32 31 31 30 30 29 29 30 30 30 31 32 33 33 33 33 33 33 33 32 31 31 32 32 31 32 31 31 31 31 31 31 30
44 43 42 40 40 40 40 39 38 36 36 36 36 36 36 36 34 33 34 35 35 36 37 36 36 36 35 34 34 33 33 32 32 32 31 30 30 30 31 31 31 33 33 32 32 32 32 32 32 32 32 32 32 32 33 32 31 31 31 31 31 31 30
41 40 38 37 37 38 39 38 35 36 35 34 34 34 33 35 34 33 31 29 32 32 35 34 34 34 34 32 32 32 32 32 33 32 32 31 31 31 31 31 31 32 32 32 32 33 33 33 32 32 32 32 32 33 32 32 32 32 32 32 31 31 30

ECMWFFLT1_sfc_dewp_030.txt.gz
Dewpoint
47 51 54 54 54 52 51 53 54 54 54 53 54 52 52 53 54 53 53 52 48 47 45 45 46 47 49 52 54 55 56 56 57 54 55 55 56 56 57 58 59 60 61 61 61 59 58 58 59 62 61 61 61 62 61 61 59 61 61 62 59 59 60
50 49 50 52 51 53 53 52 53 52 53 53 51 51 49 48 49 49 49 48 47 45 42 43 46 47 51 52 52 51 53 53 55 55 54 53 54 52 55 56 56 55 56 59 59 59 58 57 58 59 59 61 61 64 62 62 60 62 61 60 60 59 60
49 48 48 50 52 53 53 53 53 52 52 53 53 50 48 46 48 49 48 48 49 46 45 46 50 52 52 53 53 53 53 52 51 52 53 52 53 54 53 53 52 51 52 52 54 53 54 56 55 57 59 58 58 62 63 63 63 64 62 63 62 61 61
50 50 49 52 51 52 51 52 50 51 51 51 51 52 51 50 51 50 51 50 50 50 49 49 51 50 52 52 53 53 54 52 51 52 51 51 50 50 50 49 49 49 52 51 50 50 50 50 49 49 51 51 53 58 62 59 61 58 56 63 61 61 61
51 50 50 50 52 52 52 50 49 50 51 51 52 51 53 53 53 52 52 51 49 50 50 50 50 50 51 52 52 52 52 53 53 52 52 51 51 49 50 49 49 50 51 50 50 50 50 50 50 49 46 45 45 45 47 57 57 54 49 50 56 58 59
52 50 49 50 52 49 51 50 49 47 48 49 50 51 53 54 53 53 52 50 50 50 50 48 49 49 49 49 50 52 52 52 52 53 51 53 53 51 49 49 47 47 49 50 50 50 50 51 50 47 45 44 45 47 47 47 48 48 48 45 45 47 48
53 51 50 49 50 48 48 50 49 47 47 50 50 51 53 54 52 53 53 52 50 50 50 50 51 49 49 45 48 50 51 51 52 52 52 52 52 52 51 49 49 47 48 49 49 49 50 49 48 48 49 47 48 43 43 43 44 42 43 44 44 43 47
54 50 49 49 52 49 49 50 48 48 47 49 48 52 53 54 54 55 54 52 51 51 50 51 50 50 49 46 48 51 50 50 50 49 49 50 49 49 50 49 49 48 47 45 46 48 47 49 48 49 48 46 45 47 45 43 42 43 43 45 45 44 43
53 52 50 49 51 51 51 49 49 50 49 48 50 52 54 54 55 55 54 53 51 51 51 50 49 48 48 47 47 50 50 49 51 51 50 50 50 50 49 48 48 46 48 47 47 47 46 49 48 48 48 47 45 41 42 43 44 41 43 44 45 45 45
57 55 53 54 55 54 53 51 49 50 51 50 51 54 54 54 55 55 53 53 52 50 50 49 49 49 48 47 47 48 49 49 49 49 49 49 49 48 47 48 46 47 46 49 48 48 49 49 48 47 46 46 46 44 42 41 42 43 44 45 44 46 46
57 57 56 56 56 54 54 52 51 51 51 52 53 54 53 54 55 54 53 53 52 51 50 49 48 48 49 47 47 47 47 49 49 49 49 48 48 48 47 47 46 44 46 46 46 48 48 48 47 47 46 45 46 44 44 43 43 45 44 45 45 44 48
57 57 56 57 57 56 54 52 52 51 52 52 51 53 54 53 54 53 53 52 51 51 50 50 49 49 48 48 47 46 47 49 48 48 48 48 47 48 47 46 45 45 44 44 45 44 45 45 44 43 44 47 47 47 46 45 43 44 47 46 46 46 46
56 56 56 57 56 55 54 53 52 53 53 52 50 52 51 52 53 52 52 51 51 50 49 49 48 48 48 48 46 46 47 47 46 47 47 47 43 47 46 44 43 41 42 40 40 40 40 42 44 41 42 43 45 47 46 44 43 43 45 45 45 45 44
57 56 57 57 56 55 55 54 53 54 53 53 51 51 50 50 50 51 51 50 49 49 49 49 49 49 48 47 46 46 45 44 43 45 46 46 45 44 42 40 40 41 43 41 40 39 37 38 39 40 43 43 42 44 44 45 43 43 45 46 46 46 46
56 57 57 57 57 55 55 54 55 54 54 54 52 51 49 51 50 51 49 48 48 47 48 47 48 47 46 47 48 47 46 44 43 44 45 44 45 43 45 43 39 42 41 40 42 37 35 35 33 32 32 39 38 42 45 44 42 42 43 45 44 45 45
55 57 57 57 57 56 55 55 55 56 55 54 53 52 51 51 51 50 49 49 47 47 47 46 48 47 47 46 45 46 46 44 45 46 46 44 39 41 43 43 42 42 43 43 43 42 41 39 37 33 35 35 36 41 41 43 43 42 42 42 44 42 43
56 56 56 56 56 56 55 55 55 56 55 54 54 54 51 50 51 50 50 48 47 47 47 47 47 46 45 45 45 45 44 45 45 44 43 41 39 41 42 42 42 42 41 42 41 40 39 38 38 36 37 37 39 39 43 45 45 44 43 42 43 39 41
56 56 57 56 56 57 57 56 55 54 55 54 54 54 52 51 51 50 51 48 47 47 47 47 46 46 47 46 45 45 43 43 44 43 43 43 43 42 42 41 40 40 41 41 41 39 37 39 35 37 37 35 36 37 40 41 42 42 43 43 43 43 43
57 57 57 58 58 57 57 57 56 56 54 53 54 54 53 52 51 50 49 48 48 47 47 47 46 45 45 46 46 46 44 44 43 42 42 42 41 42 43 41 40 40 39 40 39 38 39 40 38 39 38 36 34 37 40 40 41 41 41 41 42 42 42
58 57 58 58 58 57 56 57 56 55 55 54 54 54 56 53 52 50 49 49 48 48 47 47 47 46 46 45 45 44 45 44 44 44 43 41 40 41 40 39 40 39 38 37 36 37 38 40 41 41 42 43 41 41 41 41 39 40 41 41 40 41 40
57 58 58 57 57 59 60 57 56 56 55 55 54 54 54 52 52 51 50 49 49 48 48 47 46 46 45 45 45 45 44 45 43 44 44 42 41 40 39 38 38 37 36 35 36 36 37 38 38 39 39 41 42 42 42 41 41 40 40 40 38 38 39
51 52 54 56 56 56 56 57 57 56 56 55 55 55 55 52 51 51 50 50 49 49 49 48 47 46 45 44 45 45 44 42 42 41 40 39 39 38 38 38 37 37 38 41 43 42 41 40 37 34 36 36 39 40 41 41 40 38 38 39 38 39 37
47 49 51 52 53 54 54 56 57 56 55 54 55 55 55 55 52 52 50 49 49 50 49 50 46 41 43 44 44 42 42 41 39 38 38 38 38 37 37 37 38 42 43 42 40 39 38 38 40 38 36 37 37 38 38 39 39 38 38 37 36 36 37
47 47 48 50 52 52 52 54 56 56 55 54 54 54 54 53 52 54 51 50 49 50 46 41 36 35 36 37 40 41 40 39 38 37 37 37 36 36 35 33 35 38 42 42 41 39 37 38 38 39 39 40 39 37 37 36 36 38 36 37 38 37 36
43 45 47 46 48 50 52 52 52 53 55 54 55 53 53 52 52 53 52 50 50 46 40 35 34 35 35 34 36 38 38 38 37 36 36 35 33 34 34 35 36 38 39 38 38 37 39 39 38 37 37 37 37 37 38 37 37 36 37 37 37 38 38
42 44 45 47 49 50 50 52 52 52 52 54 54 53 52 52 52 51 51 48 45 39 35 35 34 33 33 33 33 35 35 36 34 35 35 34 34 34 35 35 36 38 38 43 38 37 38 39 38 38 38 38 38 37 35 35 36 38 36 36 37 37 38
43 43 45 47 49 49 50 50 52 52 52 53 53 53 53 53 52 51 48 45 40 36 33 35 34 34 34 33 33 34 35 35 35 34 34 34 36 36 36 36 36 36 37 38 39 38 38 38 39 40 40 39 38 38 37 36 35 36 37 36 36 35 37
43 44 45 46 48 49 50 52 52 51 50 51 53 52 52 52 51 48 44 40 36 34 34 34 34 34 34 34 33 34 36 36 34 34 35 36 36 37 37 38 39 38 38 39 39 38 38 37 37 38 37 37 37 37 38 37 39 39 38 38 37 36 36
43 43 44 46 47 48 49 51 52 51 50 51 52 53 52 51 47 44 40 37 35 32 34 34 34 34 34 34 34 39 33 32 32 33 34 35 36 36 36 37 37 37 38 39 38 35 35 35 35 34 34 35 35 35 36 36 36 36 37 38 38 39 39
43 44 44 44 45 47 49 50 50 50 50 50 50 50 49 46 43 40 37 35 33 31 32 34 34 33 34 33 34 33 32 29 30 33 34 35 35 35 36 36 37 36 37 37 36 33 34 36 34 33 32 33 33 33 33 34 35 35 35 35 35 35 34
43 43 44 43 45 47 49 49 49 49 49 49 48 47 44 40 39 38 36 35 33 31 31 34 34 34 33 34 34 31 29 29 31 32 32 34 34 34 35 39 36 34 35 36 34 33 34 35 33 32 32 32 32 32 33 33 34 34 35 35 35 34 34
43 43 43 44 46 47 48 48 48 50 50 47 44 41 38 37 36 36 37 37 38 34 32 33 34 34 34 34 38 31 27 27 29 31 32 31 33 33 33 36 39 37 35 34 33 33 33 34 32 32 32 32 31 31 32 33 33 33 34 34 34 36 36
45 45 44 45 46 46 49 48 49 47 45 41 38 36 35 35 35 36 37 36 36 34 32 31 34 34 35 34 34 32 29 28 29 31 31 30 31 32 32 33 34 33 33 34 33 33 34 34 33 32 32 31 31 31 32 33 33 33 33 33 33 34 34
45 45 45 46 46 48 48 46 45 43 41 39 37 36 36 36 37 37 36 35 36 36 36 34 36 34 34 35 34 34 30 30 31 30 29 28 29 31 31 31 33 32 33 33 33 33 34 33 34 33 32 31 32 32 33 32 32 33 32 33 33 33 33
45 45 45 45 48 47 46 44 42 39 37 37 36 37 37 36 36 38 41 41 39 37 37 39 36 34 35 35 34 34 32 32 32 30 29 29 30 32 32 31 32 32 33 33 33 33 33 33 33 33 32 31 32 32 31 32 31 31 31 31 31 31 31
43 46 47 47 47 45 43 41 39 37 36 35 34 34 33 32 33 34 33 35 36 36 36 36 36 37 35 34 34 34 34 33 32 33 32 32 33 32 33 33 32 34 33 33 32 32 32 32 33 31 31 32 32 32 32 32 31 32 31 31 31 31 31
44 46 47 46 45 43 40 37 36 35 33 31 30 29 29 31 30 30 29 28 30 30 30 32 35 33 34 33 33 33 33 33 33 33 34 33 33 32 32 33 32 32 32 32 32 32 32 33 31 32 32 32 32 33 32 31 31 31 31 31 31 31 31

ECMWFFLT1_sfc_dewp_033.txt.gz
Dewpoint
49 52 53 53 53 52 52 54 54 54 54 53 53 51 52 53 54 52 51 50 46 44 42 43 44 46 50 49 51 52 54 53 55 54 53 56 55 56 59 60 61 61 61 60 60 57 58 56 58 63 64 64 64 62 62 62 60 61 62 62 59 60 61
52 51 51 51 50 52 53 52 53 51 52 53 50 50 50 48 49 49 49 48 48 46 41 43 47 48 51 53 53 52 52 51 53 54 54 52 53 52 53 53 54 57 59 59 60 60 58 56 58 58 59 62 63 64 63 63 62 62 61 61 61 61 60
49 48 49 48 50 52 53 54 52 52 51 51 51 49 48 47 48 48 47 47 48 45 44 47 50 51 52 53 54 54 54 53 52 50 51 51 51 52 49 49 48 50 49 55 57 56 57 57 54 54 58 57 58 63 64 64 61 61 63 62 60 59 58
50 49 49 50 49 51 51 52 50 51 51 51 50 51 51 49 51 50 50 48 50 50 48 47 50 49 52 54 54 53 53 54 52 53 52 50 51 49 49 48 48 48 49 47 50 51 50 50 49 49 51 51 55 58 62 60 58 57 58 63 62 60 60
51 50 51 49 50 51 51 50 50 49 51 51 52 50 52 52 52 51 50 50 49 51 49 50 50 49 51 51 51 52 54 54 54 53 53 53 54 51 50 49 48 48 49 49 49 49 48 48 50 48 45 43 42 42 43 60 57 53 53 51 52 56 57
52 50 51 50 51 50 49 49 49 48 50 50 51 51 53 53 52 51 51 49 48 50 50 47 47 49 49 48 51 51 52 51 51 53 51 53 52 51 51 49 48 46 47 48 49 47 47 48 47 44 45 44 45 46 44 47 51 52 51 49 46 42 44
51 51 50 50 51 48 50 49 49 47 49 51 51 52 53 52 52 52 52 51 50 50 49 51 51 48 49 44 48 50 51 51 52 52 51 52 52 51 51 49 47 47 48 50 49 50 49 48 46 48 48 46 46 42 43 42 42 42 43 47 45 43 41
51 49 48 49 51 49 50 51 50 48 48 49 49 51 53 53 53 53 53 51 49 51 50 51 50 49 49 46 48 51 51 50 50 49 49 50 50 49 49 48 49 48 48 45 46 48 46 49 48 48 46 44 44 44 43 41 40 42 42 43 43 45 45
51 50 48 48 50 50 50 50 50 49 49 49 51 51 54 53 54 53 53 51 50 50 51 50 50 48 49 48 48 50 49 48 51 52 51 51 51 50 49 50 48 46 47 45 47 47 46 48 48 47 48 46 44 43 43 41 40 38 40 40 41 44 44
54 52 49 50 52 52 52 51 50 49 51 51 51 52 54 53 54 54 52 52 51 51 50 49 49 49 48 48 49 47 49 50 50 48 50 49 49 50 48 48 46 45 44 48 47 46 47 49 48 46 45 45 45 43 41 41 42 42 41 42 42 41 46
54 53 52 51 52 53 51 51 50 49 50 50 51 52 54 52 54 53 52 53 52 51 51 49 48 48 49 48 48 48 48 49 48 49 50 48 49 48 47 46 46 45 43 46 44 47 47 45 44 46 45 45 45 44 43 42 42 43 42 43 40 37 42
55 54 53 53 54 53 52 51 50 49 51 51 50 54 54 51 53 53 52 52 52 51 50 50 49 49 48 48 47 47 48 48 48 48 49 49 48 49 48 47 45 45 43 43 44 43 43 43 42 39 40 42 43 47 46 45 43 43 44 44 44 43 42
54 53 54 54 53 54 52 51 51 51 51 50 50 53 53 51 52 53 51 52 52 50 49 49 49 49 49 49 47 47 47 48 47 47 47 47 44 47 46 47 43 42 43 40 41 41 40 41 43 39 41 41 41 44 45 45 44 44 45 44 43 42 41
56 54 54 54 54 54 54 53 51 52 51 52 51 52 52 50 50 52 51 51 50 50 50 49 49 49 48 48 47 47 48 44 45 46 47 47 45 46 43 41 42 44 44 43 42 41 39 39 39 39 39 38 40 43 43 43 42 42 45 46 45 43 43
55 54 55 54 55 53 53 54 53 51 51 51 51 49 49 51 50 51 50 49 50 49 49 48 49 49 48 48 48 48 48 44 44 44 48 45 46 45 45 43 39 42 41 41 43 38 36 37 35 35 33 35 32 36 39 39 39 39 40 43 42 43 43
53 54 54 54 55 54 54 53 53 52 51 51 51 50 50 50 49 49 49 50 49 49 49 48 50 49 48 47 47 48 48 46 44 45 45 45 43 43 45 45 44 44 45 44 45 44 43 40 38 35 36 35 35 37 36 36 38 39 39 39 42 39 40
57 57 55 55 56 55 55 55 54 52 51 51 49 52 50 48 49 49 49 49 49 48 49 49 49 49 47 46 47 47 46 46 45 45 45 43 40 43 43 44 44 44 44 44 44 43 41 40 39 36 36 35 37 36 39 40 42 42 41 41 43 40 41
59 59 59 60 60 60 60 60 58 53 53 52 52 51 52 50 49 49 51 49 49 49 49 48 48 49 49 48 48 47 47 45 46 45 46 45 47 43 43 44 43 42 43 43 44 42 40 41 35 36 36 34 33 35 38 38 39 39 40 39 40 40 41
59 58 57 58 59 59 59 60 59 60 54 54 54 53 52 51 49 48 49 50 49 49 48 48 47 48 47 48 49 48 48 46 45 45 44 44 42 41 43 43 43 43 42 43 43 42 41 40 37 38 37 36 34 36 39 39 39 38 36 36 38 39 41
58 58 58 58 59 58 58 58 57 58 57 56 55 54 53 53 54 51 50 51 51 50 49 49 48 48 48 47 48 47 47 46 46 46 44 43 43 43 43 42 43 43 42 42 41 40 40 40 40 40 40 41 40 41 41 40 39 39 39 39 38 39 38
56 58 58 57 57 58 57 58 59 59 57 57 56 54 53 53 54 55 53 52 52 51 51 49 48 48 47 47 48 47 47 47 46 45 46 44 44 43 43 43 42 41 40 40 40 40 37 34 35 35 35 36 36 37 37 37 37 37 38 39 39 38 38
47 47 51 55 55 55 56 56 57 56 56 57 57 56 54 54 57 56 54 57 54 57 54 51 49 49 50 47 47 47 47 45 46 45 45 44 44 43 42 42 41 41 41 50 41 40 39 40 32 30 32 33 35 35 36 36 37 36 37 38 37 38 36
43 45 46 47 49 52 53 55 56 56 58 56 55 55 55 57 56 56 54 53 53 55 58 55 53 46 46 47 47 46 47 47 45 45 44 43 42 41 41 41 42 45 43 42 40 38 37 37 39 37 35 35 34 34 35 35 34 35 36 35 35 35 36
43 42 42 43 45 47 48 50 52 54 55 57 57 57 57 57 57 56 54 53 54 56 53 47 42 38 40 43 47 48 47 46 44 43 42 42 41 41 41 38 39 44 45 42 41 38 37 37 37 38 38 39 39 38 36 36 35 36 34 34 34 34 34
38 39 41 41 42 42 44 47 48 50 53 55 56 56 56 56 55 55 54 54 55 56 49 40 37 37 37 38 42 46 45 44 43 42 41 40 39 39 38 38 38 39 38 37 37 40 40 38 37 37 37 37 37 37 37 37 35 34 35 34 34 35 35
37 38 38 40 41 44 44 44 45 47 49 53 53 54 53 54 54 54 54 53 53 47 42 37 36 36 35 34 34 39 40 41 40 40 39 39 38 38 38 37 36 37 36 45 39 38 38 40 39 38 38 38 38 37 36 36 36 39 37 36 35 34 34
37 37 39 39 40 41 43 43 45 47 48 50 52 51 53 53 53 54 53 53 50 45 40 36 34 34 34 33 32 34 39 39 39 37 37 37 38 37 37 36 35 35 35 36 37 37 38 39 40 42 42 42 42 41 38 36 36 36 37 38 38 37 37
38 38 39 40 42 41 42 45 46 47 48 48 49 50 51 53 53 54 53 53 43 41 38 34 33 33 33 33 32 33 39 39 37 37 37 38 37 37 37 38 38 38 38 38 40 42 40 39 39 39 38 38 38 37 38 40 40 39 39 39 39 38 38
39 40 41 41 41 42 44 45 47 48 48 47 48 48 50 52 53 52 54 43 40 35 34 33 32 32 33 33 33 38 38 37 35 35 35 36 35 36 36 37 38 37 38 39 38 35 36 38 37 36 36 36 36 37 37 38 37 37 38 39 39 38 39
39 40 41 41 41 42 43 44 46 47 47 48 47 48 49 51 52 53 43 40 37 33 31 33 33 33 33 33 33 36 35 33 32 34 34 35 35 35 36 36 38 37 38 36 37 34 34 35 35 35 35 35 35 35 35 36 36 36 36 35 35 34 35
39 41 41 41 42 43 44 45 46 47 46 46 46 46 49 49 51 43 40 38 34 32 31 34 33 34 33 33 36 36 32 32 31 31 31 33 34 34 34 43 40 34 35 35 35 34 34 35 35 34 34 33 33 33 33 34 35 36 35 35 35 35 34
40 41 41 42 43 43 43 45 46 46 46 47 47 48 45 43 41 39 37 35 36 32 31 33 34 33 33 33 37 35 31 27 27 29 30 31 33 34 33 38 41 37 35 35 33 34 34 34 33 33 34 33 31 31 32 33 33 33 34 34 35 36 38
43 43 43 44 45 44 44 45 46 47 48 46 45 44 42 39 37 35 34 33 33 33 32 32 34 33 33 33 34 34 31 28 28 29 31 30 31 31 31 32 34 36 34 32 32 32 33 33 33 34 34 32 31 31 32 32 33 33 33 33 34 34 35
43 44 44 45 45 45 45 45 47 47 48 45 42 41 39 39 36 35 34 33 31 31 33 31 33 33 34 34 33 33 31 29 30 30 29 28 29 30 30 31 34 34 33 33 34 33 34 34 34 34 34 33 32 32 33 32 32 33 32 32 32 32 32
44 45 45 45 45 43 45 46 48 48 45 43 43 39 37 36 35 35 34 33 32 32 34 35 31 34 34 35 35 34 32 30 33 28 28 28 30 32 32 32 33 35 33 33 32 33 33 33 33 32 32 32 32 32 31 31 31 30 30 30 30 30 30
42 44 44 43 42 45 45 47 48 46 44 42 40 37 36 35 35 35 34 34 35 35 36 36 34 34 34 34 35 35 32 32 32 34 32 32 33 32 33 34 35 35 32 32 32 32 32 32 32 31 31 32 32 32 33 31 31 31 30 30 31 31 31
41 42 42 42 44 45 48 45 44 43 42 38 35 34 33 32 29 28 28 29 31 30 32 33 35 35 35 35 34 34 34 33 33 33 33 32 33 33 34 34 33 32 32 32 32 32 32 33 32 32 32 32 32 33 32 32 31 31 31 30 30 30 31

ECMWFFLT1_sfc_dewp_036.txt.gz
Dewpoint
57 56 58 58 59 58 59 57 57 60 57 58 59 55 54 54 57 56 57 55 56 49 49 51 52 54 56 56 56 56 56 56 57 57 59 60 58 59 61 61 60 61 61 60 59 58 57 55 58 62 63 63 63 63 63 63 62 62 63 64 61 61 60
56 56 55 54 58 58 59 60 58 55 57 57 54 54 53 52 55 55 54 54 52 52 48 49 52 53 56 56 57 57 56 55 54 55 55 54 53 54 59 60 60 60 60 59 59 60 58 55 56 57 58 62 63 63 63 64 63 63 63 63 64 61 62
55 55 54 55 57 59 58 58 58 59 56 58 57 57 56 52 55 55 53 54 57 55 54 54 54 55 56 56 56 57 57 56 56 54 54 54 52 53 52 54 54 57 58 57 58 58 57 56 53 54 58 57 56 60 63 63 62 62 62 62 62 60 59
55 56 54 55 55 58 57 57 59 57 57 57 57 58 57 55 56 57 57 56 57 57 54 53 56 55 58 58 57 57 56 56 56 56 56 56 54 52 51 52 50 51 51 51 51 52 51 51 51 50 49 46 53 55 62 62 60 58 57 60 62 61 60
55 55 54 54 55 56 57 57 59 57 56 57 59 58 58 58 58 57 58 57 57 58 56 55 57 54 54 54 56 56 55 56 56 55 54 54 55 54 52 52 54 52 50 49 50 51 51 50 51 47 45 43 43 43 51 61 61 57 55 55 57 60 61
56 56 54 56 55 57 55 56 57 56 56 55 58 56 57 58 58 58 61 56 55 56 57 54 54 55 54 54 54 54 55 55 55 55 54 54 54 53 55 53 52 49 51 52 54 53 53 52 52 50 48 45 47 47 44 48 57 57 54 52 51 49 47
57 58 55 55 56 56 56 57 56 56 56 56 57 57 57 58 57 59 59 57 56 55 56 56 56 55 56 50 53 55 55 55 55 54 54 54 54 53 53 53 51 50 53 52 53 52 52 51 49 48 47 48 48 45 44 43 43 43 50 52 50 48 47
58 58 56 57 56 57 56 56 57 58 57 55 56 58 55 59 58 58 58 56 56 57 56 57 57 55 56 51 53 55 55 54 54 53 53 53 53 52 53 53 54 51 51 47 53 50 49 49 51 50 49 47 46 48 46 42 41 43 46 48 49 47 46
56 57 57 56 57 59 58 56 58 59 58 57 56 58 56 58 58 58 56 56 56 56 57 56 56 54 54 58 52 54 53 52 55 55 54 53 53 52 51 53 51 48 50 51 48 50 50 51 51 54 51 46 45 43 44 44 44 43 43 41 44 45 47
56 57 57 58 57 59 60 58 57 58 60 57 57 58 56 58 59 58 55 56 56 56 56 56 55 55 54 58 54 55 55 55 55 52 54 53 53 53 52 52 51 48 49 52 49 51 52 50 48 50 50 49 49 44 43 43 43 44 42 42 41 42 42
58 57 57 59 58 56 59 60 59 56 59 59 57 57 57 57 58 57 57 56 55 56 55 54 54 53 54 56 53 54 54 55 54 54 55 53 53 52 52 50 52 47 49 50 51 53 49 48 50 48 47 47 50 47 46 44 44 45 44 45 42 41 42
60 60 59 60 58 57 58 59 59 58 58 59 58 57 58 56 58 57 57 56 55 55 55 55 55 54 53 55 52 54 53 53 53 53 54 52 54 53 51 50 52 49 51 52 52 49 48 51 49 45 45 46 47 47 47 46 44 47 48 45 46 45 44
58 59 61 61 59 58 57 58 59 59 59 58 59 58 57 56 56 57 55 55 55 54 54 55 54 55 52 54 50 51 51 52 52 52 51 52 47 53 49 49 47 49 48 47 50 48 50 51 52 46 46 47 44 48 47 46 44 44 48 48 46 46 44
61 60 60 60 59 59 60 59 59 59 58 58 57 58 56 55 53 54 54 53 53 54 54 54 54 55 53 54 52 52 50 49 50 50 51 50 50 50 48 48 46 48 48 48 49 50 47 47 46 49 46 43 44 46 47 46 44 42 45 50 50 47 45
60 61 59 61 60 60 59 59 59 59 58 58 57 56 54 55 54 54 53 52 53 52 52 51 53 53 52 52 54 54 53 49 49 50 51 48 50 52 50 46 46 46 45 46 47 41 41 42 38 37 39 42 38 41 42 41 40 39 38 42 44 45 43
60 59 61 60 59 57 58 59 59 59 58 57 55 54 54 55 54 52 52 53 52 52 52 51 53 53 53 52 51 52 54 50 50 51 51 50 46 47 48 47 46 48 50 47 48 48 47 45 43 37 39 40 39 42 40 40 40 40 38 39 41 40 41
59 60 60 61 59 59 59 61 58 58 58 59 55 57 55 52 52 52 52 52 52 52 52 53 53 52 51 51 51 50 52 51 51 51 51 48 46 48 47 49 49 49 49 48 47 47 46 46 46 43 40 39 42 42 43 45 44 41 41 40 41 39 41
61 61 61 61 60 59 59 58 59 57 58 57 56 57 56 53 51 50 52 51 51 51 52 52 51 52 53 53 52 52 51 50 51 50 51 50 51 48 47 49 48 47 48 46 47 47 46 46 40 42 40 39 38 40 44 43 42 40 40 39 39 40 40
59 58 59 59 60 60 59 60 60 59 58 58 59 59 57 57 54 51 50 49 50 50 51 51 50 50 50 51 52 52 52 51 50 49 50 51 49 49 49 48 48 47 46 47 47 47 45 44 42 43 40 39 37 38 42 42 42 41 40 38 38 40 42
60 59 59 59 59 60 59 60 60 60 60 59 58 57 57 57 57 59 59 58 57 53 51 51 51 52 50 50 50 50 52 52 51 51 51 49 48 48 46 47 47 48 47 46 47 46 45 44 45 42 43 43 40 40 40 40 40 40 40 40 40 40 40
59 59 58 59 59 59 60 58 57 58 59 58 58 57 56 59 59 58 58 57 55 56 57 56 56 56 51 50 51 51 51 51 49 50 51 49 49 48 48 47 47 46 46 46 46 44 44 40 39 38 36 37 37 37 36 36 36 36 36 38 38 38 40
59 59 58 58 58 58 58 58 58 58 58 57 58 58 58 58 58 57 56 56 57 58 57 59 57 56 54 54 54 51 50 49 49 49 48 48 49 48 47 48 46 47 48 48 43 41 40 39 39 35 36 37 37 37 37 37 37 37 37 37 36 38 37
54 54 53 53 55 57 56 57 57 56 57 57 57 59 58 57 56 57 56 56 57 57 56 58 54 51 47 51 52 51 52 50 49 49 48 48 48 48 48 47 49 49 48 45 40 37 36 36 38 38 36 37 37 36 37 37 37 36 37 36 35 35 35
52 51 53 54 54 53 52 54 55 55 56 57 57 57 58 57 57 57 55 55 55 56 59 57 49 44 44 43 52 53 51 50 49 49 49 48 46 46 46 42 45 48 44 43 40 38 37 37 36 37 37 39 40 40 37 36 35 35 35 34 35 34 33
48 49 51 50 51 50 51 50 50 53 54 56 57 58 58 58 57 56 56 55 54 55 54 43 43 44 44 43 46 53 51 50 50 48 47 46 45 47 47 46 45 46 44 44 43 42 40 38 37 36 36 36 36 36 37 36 36 35 36 34 34 34 34
45 48 47 47 51 52 50 50 49 50 52 55 55 56 57 57 58 57 56 55 54 54 48 37 39 40 39 41 43 47 47 48 46 45 45 45 46 45 45 45 45 45 44 45 43 40 39 40 39 38 38 38 38 37 35 35 36 38 37 37 36 36 35
42 45 47 47 49 46 47 46 51 52 51 52 55 55 55 56 56 56 56 56 55 46 42 37 37 37 38 38 39 42 45 45 45 44 44 43 45 45 45 43 42 42 42 41 42 42 42 42 42 42 42 41 40 41 38 36 36 36 37 37 37 37 38
44 44 44 44 46 45 46 49 49 51 52 53 52 54 54 54 55 55 54 52 45 42 38 35 35 35 35 36 38 40 43 43 41 41 42 43 44 46 44 45 43 41 41 41 46 41 43 42 41 41 40 39 38 38 38 38 40 39 38 38 37 37 38
47 46 45 48 47 46 48 51 50 52 51 52 52 52 53 53 54 53 48 44 40 35 35 33 34 34 35 36 38 42 41 42 40 40 41 43 43 43 44 43 41 41 41 41 39 36 38 40 39 39 37 36 36 37 38 39 37 38 39 40 40 40 40
46 47 46 45 44 46 48 48 49 49 49 51 51 52 51 52 53 46 43 40 36 32 33 34 33 33 35 37 39 39 40 36 38 40 41 42 42 42 41 40 40 40 42 40 39 34 34 35 38 37 36 35 36 35 36 37 37 36 36 36 36 36 36
41 45 48 44 47 49 50 50 49 51 49 50 49 52 52 47 44 43 40 37 34 32 32 34 34 34 33 34 39 43 38 41 41 40 40 42 42 40 38 45 42 39 40 40 35 34 34 36 37 36 35 33 33 33 34 35 36 36 36 35 36 35 35
42 44 43 45 49 49 49 48 48 50 50 50 49 46 44 43 41 40 38 36 37 33 33 34 33 33 33 33 38 37 35 37 38 38 38 37 41 41 40 41 42 39 37 35 34 34 33 35 34 34 34 34 33 33 33 34 33 33 33 33 33 34 34
47 46 44 46 49 48 49 49 50 49 51 47 44 43 41 40 38 37 36 35 34 33 32 33 35 33 33 34 34 36 35 33 32 34 34 33 33 34 33 34 37 34 34 33 33 33 33 33 33 33 33 32 32 32 34 32 33 32 32 32 31 32 32
49 50 48 48 48 48 49 49 50 48 49 45 44 43 41 39 37 36 36 35 34 34 34 32 35 33 33 33 34 35 32 34 33 31 29 29 31 33 31 35 34 34 33 33 32 32 32 33 33 34 33 31 32 34 32 30 31 33 31 31 31 31 31
49 49 48 48 47 47 47 46 48 48 49 44 43 41 39 37 36 34 33 34 34 34 34 36 31 34 34 34 33 34 36 33 32 32 31 30 31 34 34 37 35 34 33 32 32 32 33 33 33 35 33 33 33 33 32 32 32 31 31 31 30 30 30
47 46 45 46 45 45 45 44 49 49 46 43 42 41 40 38 36 34 33 32 33 33 34 35 34 34 35 34 34 34 31 34 32 37 37 34 33 33 34 35 36 35 33 33 33 33 33 33 33 33 32 32 33 33 33 32 32 32 31 30 31 30 30
43 45 45 46 46 46 47 49 48 46 44 42 40 39 38 38 37 35 34 34 35 34 35 33 33 34 34 33 34 34 33 33 33 37 38 36 33 35 35 35 34 33 33 33 32 32 33 33 33 33 33 32 33 33 33 32 32 32 32 31 31 31 30

ECMWFFLT1_sfc_dewp_039.txt.gz
Dewpoint
53 52 51 53 54 54 54 53 53 53 55 56 53 52 53 54 52 50 51 50 49 50 53 52 53 54 54 56 56 53 53 53 55 57 57 58 57 58 59 57 58 59 58 58 57 55 53 53 55 59 61 61 61 61 62 63 63 63 62 63 62 61 61
53 53 54 54 54 54 53 54 51 51 50 49 49 49 50 50 53 52 52 51 49 50 52 52 53 54 54 53 54 53 52 52 53 52 50 50 51 54 57 58 58 58 58 57 57 57 55 52 53 55 55 59 60 61 61 62 63 63 62 62 64 62 61
52 51 52 52 52 54 53 52 51 50 51 52 52 52 52 53 51 51 52 52 53 52 52 51 53 53 53 53 54 54 54 53 54 54 51 49 50 51 52 55 55 56 57 56 56 56 55 54 50 51 54 54 52 56 60 61 62 62 62 61 61 62 61
51 51 51 51 53 52 51 52 50 51 51 51 53 53 52 52 54 56 52 53 55 56 55 54 54 55 54 54 55 54 54 52 52 52 52 52 50 49 50 51 49 49 49 48 48 50 49 47 47 47 47 45 50 47 54 60 61 61 60 61 60 61 60
51 51 50 51 52 51 51 52 52 51 49 51 51 50 51 53 52 52 54 52 53 50 48 52 53 52 53 52 52 52 52 53 53 53 51 50 51 51 49 49 50 50 49 49 50 50 47 48 48 47 46 46 47 45 51 59 61 60 58 56 58 60 61
51 51 51 51 52 51 51 53 51 49 51 52 51 52 52 50 53 53 50 49 50 53 53 52 51 51 51 52 52 53 53 52 51 50 50 49 49 50 50 49 49 49 47 49 50 51 51 49 47 44 46 46 46 47 46 45 48 58 58 56 55 56 59
52 51 51 51 52 51 52 52 51 51 51 50 52 51 51 53 52 55 52 51 51 51 51 50 51 53 53 52 52 52 51 50 51 51 50 50 49 49 51 47 47 47 47 49 49 49 48 47 46 45 46 46 47 45 46 44 43 42 44 50 53 51 49
52 52 52 52 53 51 52 52 52 51 50 52 53 51 54 52 52 53 51 51 51 51 51 50 51 51 51 50 51 51 51 51 50 51 49 49 48 47 49 49 48 48 48 47 48 49 48 49 48 47 45 43 43 46 44 43 43 43 41 42 45 44 43
54 52 53 53 53 52 52 53 53 52 52 53 54 52 52 55 53 53 51 50 52 51 52 51 51 51 52 50 51 51 50 53 51 51 50 49 48 48 48 48 45 45 48 47 47 48 47 48 47 48 47 45 41 41 43 44 43 44 43 42 43 43 42
53 52 53 52 53 54 52 52 54 53 53 53 54 52 52 55 54 53 51 52 52 52 51 51 52 50 52 50 49 50 49 52 53 52 51 50 50 49 49 47 45 45 47 48 47 47 45 44 47 46 46 46 45 43 41 42 43 43 44 44 42 43 44
53 53 54 52 51 55 53 52 53 54 53 54 54 53 52 55 54 58 52 52 52 52 52 51 51 48 50 51 50 51 52 51 48 50 50 50 48 48 49 47 44 43 48 48 48 47 43 45 45 43 43 45 46 44 43 42 43 45 45 46 45 44 44
54 52 55 54 52 53 54 53 52 52 55 54 55 53 52 54 54 55 53 53 52 52 52 50 51 48 49 50 48 50 51 50 49 49 50 49 49 48 48 47 46 43 45 44 48 45 47 46 43 42 41 44 44 44 43 44 41 45 47 44 46 46 45
55 53 55 54 52 51 54 54 54 51 53 54 54 53 51 53 55 54 54 54 52 52 52 51 51 50 49 50 48 51 48 49 51 50 49 49 50 49 47 45 46 44 44 46 45 44 44 47 46 41 42 43 42 43 44 42 41 41 46 45 45 45 44
56 56 56 55 53 53 53 54 54 52 54 53 54 54 53 52 54 54 54 54 53 52 51 51 51 51 48 50 47 50 48 48 50 49 48 47 48 47 47 47 45 46 44 45 43 44 45 43 42 44 45 42 42 43 42 40 37 37 40 46 42 41 41
56 54 55 56 54 54 54 54 55 55 53 53 54 54 54 53 53 54 53 53 54 52 52 51 51 51 49 50 49 51 48 47 48 49 47 45 48 48 47 46 45 44 45 45 45 43 44 43 42 38 38 41 38 39 41 38 37 37 35 39 39 41 41
56 55 56 57 56 56 56 55 55 55 54 54 53 54 54 54 53 53 53 52 52 53 52 51 51 50 51 49 50 49 50 47 46 48 48 46 46 47 43 45 46 46 47 44 44 45 47 44 44 39 38 39 38 39 40 40 38 37 37 38 41 40 42
57 56 54 56 56 56 56 56 55 55 56 55 54 54 54 53 54 53 53 53 52 52 52 51 51 50 50 50 50 49 50 47 47 48 49 47 46 46 43 44 45 47 47 45 45 45 45 43 41 41 39 39 39 38 42 42 42 40 40 38 40 38 40
57 57 57 57 57 56 56 57 57 56 56 56 57 56 55 56 55 54 53 52 52 52 52 52 51 50 50 50 49 49 50 48 48 47 49 48 50 46 45 44 47 46 46 45 45 44 44 42 41 41 40 40 39 41 41 42 41 41 40 39 39 40 40
57 58 57 57 56 57 56 56 56 56 56 55 55 56 56 57 56 55 55 56 55 54 53 53 54 54 51 50 49 50 49 48 48 47 48 47 47 47 46 46 47 46 45 44 44 45 43 42 42 40 39 37 37 37 38 37 38 38 38 38 39 39 39
56 56 55 55 55 56 56 56 57 57 56 55 55 55 56 56 55 56 56 56 55 56 56 56 56 55 54 53 51 50 50 48 48 47 47 47 47 46 46 46 46 46 45 45 45 43 43 39 40 37 38 35 35 35 34 35 35 35 35 35 35 36 37
56 56 55 55 55 56 56 55 56 55 56 55 56 57 57 56 56 56 56 55 56 55 55 56 55 55 56 56 53 51 50 49 48 47 48 47 45 44 45 46 45 45 45 45 44 43 39 37 37 34 35 35 36 36 36 37 37 36 36 36 36 36 37
55 55 55 55 55 55 56 56 56 55 55 55 56 56 56 56 55 55 56 56 56 55 55 55 56 55 55 55 54 53 52 50 48 47 47 45 45 45 45 45 44 46 51 48 45 43 43 43 36 33 34 34 36 36 36 36 36 35 35 35 34 36 35
56 56 55 55 55 55 56 56 55 54 55 56 56 56 56 55 54 54 54 55 56 56 55 56 54 51 52 54 54 53 53 51 48 47 46 45 45 45 45 45 49 53 49 46 42 39 37 37 38 36 35 34 35 34 34 34 35 35 35 34 33 33 33
48 54 55 55 55 55 55 56 56 56 56 56 55 56 55 55 54 54 54 55 55 55 55 55 50 47 46 48 51 52 53 51 49 47 46 45 44 44 44 44 46 48 47 45 42 38 37 36 36 36 37 38 39 35 33 35 35 35 35 35 35 34 34
39 42 43 43 45 47 48 51 54 55 54 54 55 55 55 55 54 54 54 55 53 53 53 51 48 47 45 43 45 52 51 50 49 47 46 45 44 43 43 44 45 47 43 42 41 41 40 38 37 37 36 36 36 37 37 37 36 34 34 34 35 35 35
42 41 42 43 42 43 43 43 43 44 47 52 52 52 55 55 54 55 54 53 53 51 53 45 39 42 43 43 44 48 49 49 48 47 45 44 43 43 42 42 42 44 43 46 48 41 40 40 41 39 38 38 38 37 35 35 36 38 36 35 35 35 35
40 41 43 43 44 43 43 43 45 46 47 47 48 51 52 55 54 54 54 52 49 46 41 38 38 40 40 41 42 44 46 45 44 44 43 43 42 41 40 40 40 41 42 42 43 43 43 42 42 42 40 38 38 40 39 37 37 37 38 37 36 35 36
37 39 40 40 40 41 42 42 43 43 44 44 45 46 49 50 53 53 51 48 43 36 36 36 37 38 39 39 40 41 44 44 43 42 41 42 41 40 40 42 40 39 40 41 46 43 42 41 40 39 38 38 38 38 37 37 37 38 38 38 37 37 37
40 41 41 41 41 41 42 43 44 45 44 45 46 46 46 48 47 47 46 41 35 32 33 35 36 37 38 38 39 41 40 39 40 41 39 41 41 42 43 42 41 41 41 42 40 38 40 39 36 36 36 36 36 36 37 40 39 38 39 38 38 39 39
39 40 41 40 39 40 40 41 41 44 42 44 44 46 45 45 44 42 39 35 31 30 32 35 36 37 37 37 37 37 37 37 37 37 38 39 40 40 41 41 41 41 41 40 35 34 36 38 36 36 35 35 35 35 35 37 38 37 36 35 35 35 35
39 40 41 41 42 43 44 44 44 45 43 43 44 43 42 41 40 38 34 32 31 30 31 35 35 36 37 37 38 37 36 36 35 37 38 40 40 40 40 45 43 38 35 34 34 34 35 36 33 33 33 32 32 32 33 35 36 35 35 35 34 34 34
41 41 42 41 42 42 42 42 43 43 44 44 42 41 40 38 36 35 34 33 37 31 30 33 34 34 35 36 36 34 35 35 35 36 36 35 35 35 35 40 41 38 35 35 33 33 34 34 32 32 32 30 30 30 31 32 32 32 31 31 31 31 32
40 41 41 42 44 44 44 44 44 44 42 41 40 38 37 36 34 34 33 32 33 30 29 30 33 34 35 36 36 35 36 33 33 32 31 32 33 32 35 35 36 33 33 33 33 33 33 33 31 31 31 29 29 29 32 31 33 32 31 32 31 31 32
42 44 43 43 43 43 43 43 43 43 42 41 39 37 36 35 34 33 32 32 31 30 30 29 32 33 33 34 35 35 33 32 31 30 30 31 32 34 34 33 34 34 33 33 33 33 32 32 33 32 30 30 31 33 33 31 32 34 32 32 33 32 32
43 43 42 41 40 41 42 41 41 43 42 39 37 36 35 34 32 32 32 32 31 32 35 34 30 33 33 34 34 34 32 33 33 32 33 33 34 34 35 33 33 34 33 33 32 32 32 32 33 34 33 33 33 33 33 33 32 31 31 32 31 32 31
42 43 41 41 40 40 41 42 41 43 41 39 37 35 34 32 31 31 31 31 31 32 33 34 34 32 34 34 33 34 34 33 34 36 33 32 33 34 35 34 36 35 33 32 32 32 32 33 33 32 33 33 33 33 34 32 32 32 32 31 32 31 31
41 42 42 42 42 40 42 43 42 42 41 39 37 35 34 32 30 29 29 31 32 33 33 31 33 33 33 33 34 33 33 33 35 36 34 32 34 34 33 34 34 33 33 33 33 33 33 33 32 33 33 33 33 34 32 32 31 32 32 32 32 31 31

ECMWFFLT1_sfc_dewp_042.txt.gz
Dewpoint
50 51 52 52 53 54 52 52 53 53 52 51 50 50 51 51 50 50 51 52 52 53 54 52 53 53 53 54 54 53 54 55 56 57 57 58 57 58 59 57 57 57 57 57 54 53 52 52 54 56 58 58 59 59 61 61 62 63 62 61 61 62 61
52 52 54 54 53 53 52 50 50 49 49 49 50 49 50 51 53 50 50 50 51 52 54 53 53 53 53 53 53 53 52 53 53 52 50 49 52 56 58 57 57 57 56 56 56 56 52 49 51 52 53 55 56 58 59 59 61 62 61 61 62 61 61
53 53 53 52 51 51 49 48 48 49 49 50 50 51 50 50 51 52 51 50 51 53 54 52 52 53 53 53 53 52 52 52 52 51 49 48 49 50 54 55 56 55 52 50 51 52 52 51 49 47 48 47 48 51 57 60 60 61 62 62 62 61 62
52 52 51 51 51 49 48 48 48 49 49 50 51 50 51 53 53 54 53 53 54 56 54 53 53 53 52 52 52 52 52 51 50 50 51 50 49 49 49 49 49 48 47 46 46 48 47 45 46 46 47 46 45 45 48 54 58 59 60 60 60 60 60
52 51 50 51 51 49 48 48 49 49 49 50 49 49 49 50 52 51 52 50 51 51 52 52 52 52 52 51 51 51 50 50 50 50 49 49 49 49 49 49 49 49 49 48 49 48 48 47 46 45 45 46 47 46 46 48 53 55 58 58 57 58 60
51 50 51 51 50 50 49 49 49 48 49 49 48 49 48 49 51 48 48 49 50 51 50 51 50 51 51 51 51 51 50 49 49 49 48 47 48 47 47 47 47 47 48 49 50 49 48 47 45 43 45 46 44 46 47 45 44 44 45 48 51 46 45
50 50 51 51 51 50 50 49 48 49 49 49 50 49 49 50 50 50 50 49 49 49 50 50 50 51 51 50 50 49 49 48 49 49 48 47 48 48 47 47 47 47 47 48 48 48 47 46 45 44 43 44 45 45 45 43 43 40 41 43 45 43 44
50 51 51 52 51 51 51 49 48 50 49 50 50 49 51 51 51 50 49 49 49 49 49 50 52 50 50 50 50 50 49 48 49 49 47 47 48 46 46 46 47 47 46 47 46 46 47 47 47 45 43 41 41 43 44 45 44 43 43 43 43 43 44
52 51 52 52 51 52 51 50 50 50 50 51 50 51 51 51 51 50 50 49 49 49 50 49 50 50 49 50 49 49 49 52 49 48 48 48 47 47 45 44 45 45 46 46 45 44 45 46 46 46 45 43 41 40 42 42 44 43 45 43 43 44 43
52 51 52 52 52 52 52 51 51 50 51 52 51 52 52 51 51 49 49 50 49 50 49 50 50 49 49 50 49 48 49 50 50 48 48 47 47 46 45 44 44 45 45 45 44 44 44 44 44 45 45 44 43 41 39 39 41 43 44 45 42 43 44
51 51 52 52 52 52 52 52 52 51 51 52 52 52 52 52 51 54 49 50 49 49 49 50 50 49 49 48 48 49 49 49 49 48 49 47 46 47 47 43 43 43 45 45 46 45 45 43 42 42 43 45 44 41 40 38 39 43 45 45 45 43 42
52 52 52 52 53 52 52 52 52 52 52 53 53 51 52 52 52 50 50 50 50 50 49 49 49 48 49 48 48 49 49 47 48 48 48 47 47 47 45 43 43 42 44 46 45 44 45 45 42 41 42 42 44 43 41 40 36 40 46 39 44 46 42
53 53 52 51 52 52 51 52 52 52 52 53 52 51 52 52 52 51 50 50 50 50 50 49 49 48 48 48 48 49 49 48 48 47 47 48 49 47 45 44 43 41 44 44 43 44 44 44 45 41 43 41 41 44 43 40 37 36 42 40 43 40 39
53 53 53 51 51 53 51 52 52 52 53 53 52 51 52 53 53 52 51 51 50 50 50 49 49 48 48 48 48 49 48 48 48 48 48 47 48 46 46 44 44 43 45 43 43 44 44 44 41 40 41 39 39 40 38 35 33 35 37 42 41 39 40
56 54 54 52 51 52 53 52 52 52 52 53 53 51 51 53 53 53 52 51 50 50 50 49 50 49 47 49 47 50 47 48 49 48 46 46 47 47 46 44 44 44 45 44 43 43 45 42 38 37 39 39 38 40 41 39 37 35 35 38 39 41 40
55 54 55 55 54 55 55 55 56 53 53 53 53 52 51 52 53 53 53 53 51 50 50 49 50 50 48 48 48 48 49 46 48 48 47 45 47 47 45 46 44 44 45 43 44 45 43 41 40 39 39 40 38 40 41 41 39 38 38 38 41 38 38
55 55 55 55 55 55 56 57 57 56 55 53 53 53 53 53 53 53 53 53 52 51 51 50 50 49 49 48 49 48 49 46 46 48 47 46 46 47 44 44 45 45 45 43 44 43 42 41 41 40 39 40 38 39 41 40 40 38 39 37 38 37 39
54 54 54 55 54 55 56 56 55 56 55 55 55 55 55 54 53 53 53 52 52 52 52 51 50 50 49 49 48 48 49 47 46 47 48 46 48 46 44 42 45 46 45 44 44 42 41 41 41 39 36 36 34 37 36 37 37 37 35 34 36 39 38
54 53 53 53 54 55 55 56 55 54 55 55 54 54 55 54 54 53 53 53 53 52 52 52 51 50 49 49 49 49 49 48 47 46 48 48 47 46 44 42 46 45 44 43 43 43 42 40 38 35 33 33 32 34 34 35 37 36 35 35 35 36 36
53 53 53 53 54 55 55 55 56 55 56 55 54 54 54 54 54 54 54 55 54 54 54 54 53 53 51 50 49 49 49 49 48 47 47 48 48 46 45 44 46 46 44 43 44 42 40 39 38 36 37 34 35 34 35 36 36 35 35 35 34 35 35
54 54 53 53 53 54 55 55 55 55 56 55 55 55 54 54 54 54 54 54 55 55 54 54 54 54 53 52 51 50 50 49 48 47 47 48 48 47 46 46 45 44 44 44 44 42 37 35 37 36 35 36 37 35 34 36 34 34 34 34 33 33 34
53 53 53 53 53 54 55 55 54 54 53 54 54 55 55 55 54 54 53 53 54 53 54 54 55 54 54 54 53 52 51 50 49 48 47 47 47 46 46 45 44 44 46 48 46 43 41 41 37 34 35 36 37 34 33 34 35 34 34 34 34 34 34
53 53 52 53 53 53 53 53 52 52 53 53 52 53 54 54 53 53 53 53 53 53 54 54 53 51 51 54 53 53 52 51 50 49 48 47 45 45 45 45 46 51 51 48 43 40 40 41 42 40 36 34 34 33 32 33 33 35 35 34 34 34 34
53 53 52 51 51 52 53 52 52 52 52 52 52 52 53 53 53 53 53 52 52 53 54 54 50 46 45 48 52 51 51 51 50 49 48 46 44 44 44 44 47 50 46 44 41 38 37 37 37 37 38 39 40 35 33 33 34 34 35 35 35 34 34
44 46 47 48 48 50 51 51 52 52 51 51 52 51 52 53 53 52 51 50 51 53 53 51 48 46 45 45 48 52 52 52 50 49 47 46 44 44 44 45 46 47 43 41 39 39 39 38 37 37 36 36 36 38 39 36 35 33 33 33 34 34 34
41 42 42 43 43 44 45 46 47 47 48 50 50 50 53 53 53 52 51 51 51 50 47 39 41 43 43 43 43 47 50 51 51 48 47 46 44 44 43 45 45 46 46 48 47 42 41 42 40 38 38 38 37 36 35 36 37 38 35 34 34 34 34
36 38 41 41 41 41 41 40 42 43 44 45 47 48 48 50 51 50 50 49 49 40 39 39 39 42 42 41 41 44 48 47 47 47 47 45 45 44 43 41 41 42 42 42 42 42 43 43 42 41 39 37 38 40 39 37 36 37 38 37 35 35 35
36 38 39 39 39 39 40 40 42 42 42 42 43 44 46 47 48 50 48 44 40 37 37 37 38 39 40 40 41 43 44 44 43 43 42 42 42 41 41 41 39 40 40 42 45 43 42 41 40 40 38 37 36 36 36 37 36 36 38 37 35 35 36
38 40 40 40 40 40 40 40 40 40 41 41 42 42 42 43 46 43 41 38 36 34 35 37 37 38 39 39 40 42 41 40 40 41 41 42 42 42 41 41 40 41 41 39 37 37 39 39 37 36 35 34 34 34 34 38 37 38 37 34 34 34 34
38 39 39 39 39 39 40 41 41 42 41 40 40 40 39 40 40 39 37 35 34 33 34 36 37 38 38 37 38 39 39 38 38 38 38 40 42 42 43 42 41 37 37 37 36 35 36 36 33 33 32 31 32 31 32 33 37 36 36 35 35 35 34
38 39 39 39 41 42 42 41 40 42 41 40 40 38 38 37 36 36 34 33 33 34 33 36 37 37 37 37 38 37 37 37 37 37 38 38 37 39 44 45 40 34 33 34 34 34 34 35 31 32 31 30 29 29 30 31 34 34 35 35 34 34 34
39 39 39 39 40 40 40 41 41 40 40 40 39 37 37 35 34 33 33 34 38 33 33 35 36 35 36 36 37 36 36 35 35 35 34 34 34 35 35 39 39 36 34 35 33 33 34 33 31 31 30 28 28 27 29 28 30 30 30 31 31 31 32
40 41 41 41 41 41 41 40 40 39 38 38 37 35 35 34 33 32 32 32 33 31 31 32 35 35 36 36 36 36 35 32 32 32 33 32 34 32 32 33 35 33 33 33 33 33 33 34 31 31 30 27 27 27 29 29 32 30 29 31 31 31 32
39 42 41 41 41 41 40 39 39 39 38 36 35 34 33 32 32 31 30 30 30 30 31 30 34 35 36 36 35 34 31 31 31 32 34 34 33 33 32 33 34 34 33 33 33 33 33 33 35 31 29 28 30 32 32 29 32 35 31 31 32 32 32
41 42 41 39 38 38 39 39 39 39 37 36 35 33 32 32 31 30 30 30 30 31 34 35 32 35 35 34 34 33 32 33 34 34 33 34 34 33 32 33 33 34 33 33 33 33 33 33 33 35 31 33 33 33 32 32 31 31 30 31 30 31 31
39 42 40 39 39 39 39 39 38 38 37 35 34 33 31 31 30 30 29 29 30 30 31 33 34 32 34 34 34 34 34 35 34 34 34 34 34 33 34 34 36 35 33 33 33 33 33 33 34 32 34 33 33 33 33 31 30 31 29 29 30 30 31
39 40 40 39 39 38 39 38 37 38 37 36 34 33 31 31 30 29 28 29 30 30 31 30 34 33 32 33 34 34 34 34 35 35 34 34 34 34 33 33 34 35 34 33 33 33 33 34 31 33 34 34 34 34 32 31 29 30 30 29 29 30 30

ECMWFFLT1_sfc_dewp_045.txt.gz
Dewpoint
50 50 50 50 52 53 52 51 50 49 49 50 50 51 51 52 51 52 52 52 53 53 54 52 51 51 52 53 53 53 54 55 57 57 57 58 56 58 59 57 57 57 56 56 54 52 50 52 52 54 56 56 58 59 60 59 60 60 59 59 62 62 61
50 52 52 53 52 51 50 48 48 47 48 49 49 50 50 52 53 51 51 51 52 52 54 53 51 52 51 51 51 51 51 51 52 53 52 51 55 57 57 56 56 55 54 55 56 54 50 48 49 49 49 52 53 55 57 59 60 60 60 60 61 61 61
52 52 52 51 50 49 49 47 47 47 47 48 48 49 50 51 51 51 51 50 51 53 53 51 51 51 51 51 50 50 50 50 50 49 49 48 51 53 56 55 54 51 47 47 47 50 48 49 46 45 46 46 46 49 52 52 55 59 60 60 59 59 61
52 52 51 49 48 47 47 47 47 47 48 48 49 49 50 51 52 53 51 51 53 55 53 52 51 51 50 50 50 50 50 49 49 49 49 49 49 49 48 49 48 47 46 45 45 47 46 45 45 45 46 46 45 45 46 48 50 56 59 58 58 57 59
52 52 51 50 49 48 47 47 47 48 47 47 47 48 48 50 51 50 51 50 51 50 50 50 50 50 50 50 50 49 48 48 49 49 48 47 47 47 47 47 48 48 48 47 47 47 46 45 45 44 44 46 45 45 47 47 45 48 49 45 45 45 45
52 52 51 50 49 48 47 47 47 47 47 46 46 48 47 48 50 48 49 49 49 50 50 50 49 50 50 50 49 49 48 48 47 48 47 46 46 46 46 46 47 48 47 47 48 46 46 45 44 42 43 45 43 44 45 44 44 44 44 43 43 43 43
52 51 51 51 49 48 48 48 48 48 48 47 47 47 48 49 48 49 49 48 48 49 49 49 49 49 49 49 48 48 48 46 47 47 47 47 47 46 46 46 46 46 46 47 46 46 45 44 43 41 41 41 43 43 44 44 44 42 42 43 43 41 41
51 51 51 51 50 49 48 48 47 48 48 47 48 47 50 48 49 48 48 48 48 49 50 50 50 49 49 49 49 49 48 47 47 48 46 46 46 45 45 45 46 45 45 45 44 45 45 45 44 43 41 36 36 41 42 43 44 43 43 44 43 38 40
52 51 52 52 50 49 49 48 48 48 48 48 48 48 49 49 48 48 49 47 47 48 48 49 48 48 48 49 48 48 48 50 47 47 46 45 44 44 44 44 44 44 44 44 44 44 44 45 46 44 43 40 35 31 40 37 40 42 44 42 44 41 38
51 51 51 51 51 51 50 49 48 49 48 49 50 50 49 49 48 47 47 47 47 48 48 48 48 48 48 48 48 47 48 48 49 46 45 45 44 43 43 43 43 43 44 44 43 44 44 43 44 44 43 41 40 38 36 35 36 41 43 43 35 39 39
51 51 52 51 51 51 50 49 49 49 49 51 50 51 49 49 48 53 47 47 47 47 48 48 48 48 48 47 47 47 48 48 48 47 47 46 45 45 44 42 42 42 43 43 43 44 43 41 41 42 43 43 41 38 37 35 35 41 42 40 41 37 38
51 51 52 52 51 51 51 51 50 50 49 50 51 50 49 49 48 49 47 47 47 48 47 48 48 48 47 47 47 48 48 46 46 46 46 46 45 44 42 41 41 43 43 43 43 43 44 42 41 41 40 41 42 41 39 37 31 35 43 36 39 41 39
51 51 52 52 51 51 51 51 51 50 50 51 50 50 50 50 49 48 48 48 48 47 48 47 47 47 47 46 48 47 47 46 46 46 46 47 46 44 43 41 41 42 42 43 43 43 41 41 40 39 39 40 40 40 39 37 34 35 40 39 40 39 39
51 51 52 52 51 51 52 52 52 51 51 51 51 50 50 51 50 50 48 49 48 48 48 47 47 46 47 46 46 47 47 46 46 46 47 46 46 44 44 42 43 43 43 43 43 43 41 39 39 40 40 39 40 40 38 36 35 35 37 41 41 39 40
52 52 51 51 51 53 52 51 51 51 50 51 51 51 51 51 51 51 50 49 49 49 49 48 48 46 47 47 45 48 48 47 46 46 46 46 46 45 43 42 43 43 43 43 43 41 39 38 37 38 39 39 39 40 40 36 36 36 34 36 38 37 38
53 52 53 53 53 54 54 53 53 53 53 52 53 52 51 51 52 52 52 51 50 49 49 49 49 49 47 48 46 47 48 47 47 47 46 46 46 45 43 44 43 43 44 43 42 42 41 39 39 38 38 38 37 39 39 37 33 33 35 34 38 32 36
54 54 54 54 54 55 55 54 55 55 55 54 54 54 53 52 52 53 53 52 52 50 49 49 49 49 48 47 47 47 48 47 47 48 47 46 46 46 44 44 43 44 44 43 42 41 41 40 39 37 35 36 33 35 37 37 37 33 37 32 33 34 37
53 53 53 53 53 54 53 54 54 54 55 55 55 55 55 54 53 53 53 53 52 52 51 50 49 49 49 48 48 47 48 47 46 47 48 47 48 47 45 44 44 44 43 43 41 40 40 39 38 35 33 34 32 35 37 37 36 35 33 32 34 37 36
51 51 51 51 52 53 53 53 52 53 54 54 54 54 54 53 55 54 54 53 53 53 52 51 51 50 49 49 49 48 48 48 47 46 47 47 47 47 46 44 44 44 43 43 42 41 40 38 35 33 32 31 33 35 35 37 37 35 34 34 33 34 35
52 51 51 51 52 53 53 54 54 53 53 53 53 54 54 53 53 53 54 54 54 54 53 53 53 52 51 50 49 49 48 48 48 47 46 47 47 47 46 44 44 44 44 44 43 42 40 38 38 35 36 34 34 35 36 36 35 34 34 34 34 34 34
53 52 52 52 52 53 53 54 54 53 53 53 53 53 53 54 54 54 54 54 54 54 54 53 53 53 52 52 50 49 49 49 49 48 47 47 48 47 46 44 44 45 44 44 44 42 40 38 37 36 37 36 36 35 35 36 35 34 34 34 33 33 34
51 52 53 52 52 52 53 54 54 54 53 53 53 54 54 54 53 54 54 54 53 53 53 53 54 53 53 53 52 52 50 49 49 48 48 47 47 48 47 45 44 45 46 49 47 44 42 41 38 35 36 38 36 35 34 35 35 34 34 34 34 34 34
53 52 52 52 52 52 52 52 52 52 53 52 52 53 53 53 54 54 54 53 52 53 53 53 53 50 51 52 53 52 51 50 49 49 48 48 47 47 47 46 47 50 49 49 46 41 40 40 41 39 35 37 38 35 34 34 34 35 35 34 33 33 34
52 51 51 51 50 50 51 51 50 50 51 52 53 53 52 52 53 53 52 51 51 52 52 53 50 47 46 46 51 51 51 51 50 50 49 48 47 46 46 46 46 49 49 48 44 39 39 39 39 39 40 40 40 37 34 34 34 34 36 34 33 33 32
45 45 48 49 47 47 48 49 50 49 49 50 50 50 51 51 51 51 50 49 49 49 49 47 43 47 45 44 46 51 51 51 51 49 49 48 47 46 45 45 47 49 46 43 39 38 39 38 37 37 37 38 38 39 39 37 38 34 33 33 33 33 32
40 40 40 41 42 43 44 44 43 44 44 46 47 48 48 49 48 48 48 49 48 48 48 41 40 41 41 42 42 47 50 50 50 50 49 48 47 46 45 46 46 45 46 47 43 40 39 41 39 38 38 38 39 37 35 35 38 38 34 33 33 32 33
38 39 40 41 41 40 40 40 40 41 42 42 43 45 45 45 46 46 46 47 46 41 39 40 38 39 40 39 39 42 47 47 48 47 46 45 45 45 45 45 44 44 44 42 42 42 43 42 41 40 40 39 38 39 38 37 37 37 38 35 33 33 34
38 38 38 38 38 39 39 39 40 41 40 41 42 43 43 41 44 46 44 42 39 36 36 38 37 38 39 40 41 42 42 42 42 41 41 42 42 42 42 42 40 41 41 41 43 43 42 41 40 38 36 36 35 36 36 36 36 36 37 35 34 34 34
38 39 38 38 38 38 38 38 38 40 39 39 38 38 39 41 41 39 38 36 36 35 35 37 38 38 39 40 41 42 41 41 41 40 41 40 41 40 40 40 39 38 38 38 39 38 39 38 36 35 34 33 33 34 35 37 38 38 37 33 33 33 33
39 38 38 39 39 39 39 39 40 40 39 38 37 38 36 36 36 35 36 34 34 33 33 36 37 38 38 38 39 40 39 40 40 39 38 39 41 42 41 38 37 36 36 36 36 35 35 36 34 32 32 32 33 32 31 32 36 36 35 35 35 35 35
38 38 38 39 40 41 40 39 39 39 38 38 38 36 35 34 33 34 33 32 34 33 32 36 37 37 38 38 39 39 38 38 37 36 35 36 38 40 42 41 38 34 33 34 34 34 35 35 32 32 32 31 30 30 29 30 31 32 34 35 35 34 34
38 38 38 38 39 40 39 39 38 37 37 37 36 34 36 33 32 33 33 35 39 33 32 35 36 36 37 37 38 37 37 36 34 34 34 34 34 35 36 38 39 36 35 35 33 34 34 34 31 31 30 28 27 26 27 27 27 29 29 31 31 32 32
39 39 39 40 39 39 39 37 36 37 35 36 35 33 33 32 31 30 31 30 32 31 32 32 35 36 36 37 37 37 36 34 33 33 33 32 32 32 32 33 36 33 33 33 33 33 34 34 31 31 30 27 26 26 27 28 31 30 29 30 29 29 31
41 39 40 40 39 40 38 38 36 36 35 34 33 32 31 31 31 29 29 29 29 31 32 32 34 35 36 35 35 35 34 33 33 33 33 32 31 31 31 32 34 34 33 33 33 33 34 34 34 32 28 27 28 30 31 28 30 34 30 30 31 31 31
39 41 40 39 37 37 37 36 36 36 34 33 32 31 31 30 29 28 29 29 31 30 34 36 32 35 35 35 34 34 34 34 35 34 33 32 31 31 31 32 32 34 34 34 34 34 34 34 34 35 30 33 33 33 30 32 30 30 30 31 29 29 29
39 41 40 39 38 38 37 37 35 35 34 32 32 30 29 29 28 28 28 28 28 29 30 33 35 34 35 35 35 35 35 35 35 36 33 32 31 31 32 32 35 35 34 33 33 33 33 33 34 32 34 34 34 34 34 31 31 30 28 29 30 29 28
39 40 40 39 38 39 36 35 35 35 34 34 32 30 29 29 28 28 27 27 28 29 29 30 34 35 35 35 35 35 35 35 35 36 35 33 33 33 33 34 36 34 34 33 33 33 33 34 32 33 33 34 34 34 30 30 28 29 29 28 28 28 28

ECMWFFLT1_sfc_dewp_048.txt.gz
Dewpoint
51 51 51 51 52 53 51 50 49 49 50 51 51 51 52 54 53 53 53 53 54 55 55 52 52 53 53 55 55 56 57 57 59 58 59 59 57 58 58 58 57 57 56 56 55 55 53 53 54 56 57 56 55 54 55 57 60 61 60 62 62 63 63
51 52 53 53 52 51 49 48 48 49 50 50 51 51 52 54 55 52 52 53 53 54 55 53 53 52 52 52 52 52 52 54 57 57 57 56 56 57 57 57 56 54 53 53 55 54 53 51 50 50 50 55 53 52 54 57 60 61 61 61 62 61 61
53 52 52 51 50 49 48 47 48 48 49 50 50 50 51 51 52 52 52 52 53 55 55 52 51 52 52 51 51 51 51 51 51 51 51 52 55 55 56 55 53 51 49 49 49 52 52 51 49 50 48 48 47 49 52 53 52 51 50 51 50 53 55
52 52 51 49 48 48 47 46 47 48 49 49 51 51 51 51 52 54 52 53 55 57 54 51 51 51 51 51 50 50 50 50 50 50 50 50 50 50 49 50 49 48 47 47 47 48 49 49 49 46 47 46 45 44 47 49 47 43 42 46 46 45 48
52 52 51 50 48 48 47 47 47 48 48 48 49 50 50 51 53 52 53 52 53 51 51 51 51 51 51 50 50 50 49 49 50 50 48 48 49 49 49 49 49 49 49 48 48 48 48 48 48 46 45 46 42 44 45 49 45 42 41 40 41 43 44
52 52 51 50 49 48 47 47 47 47 47 48 48 49 49 49 51 50 51 51 51 52 51 51 50 50 50 50 49 49 49 48 48 48 48 47 48 48 48 48 48 48 48 49 48 47 47 46 45 44 44 45 44 44 44 46 45 43 42 39 39 41 41
52 52 51 50 49 48 47 48 47 48 47 47 47 48 48 50 50 51 51 50 50 51 51 50 50 50 49 49 48 48 48 48 48 48 48 48 47 47 47 46 46 46 46 47 47 47 46 46 45 44 44 42 44 42 44 43 43 42 43 41 39 40 41
52 52 51 51 49 48 48 48 47 48 47 47 48 48 52 49 50 49 49 50 50 51 52 51 51 50 50 50 49 49 49 48 48 48 47 47 46 46 46 46 46 45 45 45 45 46 46 46 45 45 43 38 39 41 42 40 42 42 43 44 40 39 41
53 52 52 51 50 49 48 48 48 48 48 48 49 49 51 49 49 50 49 48 49 50 50 50 49 49 49 49 49 49 49 49 47 46 46 46 46 46 45 45 44 44 45 45 45 45 46 47 46 45 43 39 37 35 40 40 43 42 42 39 38 39 39
52 52 52 51 50 50 49 48 49 49 49 49 49 51 50 49 49 48 48 48 48 49 50 50 49 49 49 49 48 48 48 48 48 46 46 45 45 45 45 45 45 45 45 46 45 44 44 45 45 45 43 42 41 37 39 38 40 44 37 40 36 37 38
52 52 52 51 51 51 50 49 49 49 49 50 51 52 50 49 49 54 48 48 48 48 49 49 49 49 49 49 48 49 49 48 48 47 48 46 45 46 45 44 45 44 45 45 45 45 44 43 43 44 44 43 41 38 41 39 38 45 41 40 40 36 38
52 52 52 52 51 50 50 50 50 50 50 51 52 51 50 50 49 50 48 48 48 49 49 49 49 49 48 49 50 50 49 47 46 46 47 46 45 44 44 44 44 44 44 44 43 43 44 43 43 42 42 42 42 41 39 40 35 39 44 41 41 40 39
52 52 52 52 51 51 50 50 50 50 50 52 51 50 50 50 50 49 49 48 49 49 49 49 49 49 48 48 49 49 48 47 47 47 47 47 44 43 44 43 44 44 44 43 43 43 43 43 43 42 42 42 42 42 41 39 36 36 44 41 41 39 39
52 52 52 52 52 52 52 51 51 51 52 51 51 51 51 51 50 50 49 51 50 49 49 49 49 48 48 48 48 49 48 48 47 47 49 47 46 43 43 43 43 44 44 43 43 42 42 42 42 43 42 41 41 42 39 39 36 35 41 43 42 38 39
53 53 52 52 52 52 52 52 52 52 51 52 52 51 51 52 52 51 51 50 50 50 49 49 49 47 49 48 48 49 48 48 47 47 48 47 46 45 44 44 44 44 44 42 42 39 40 40 38 38 39 39 38 39 42 40 39 37 32 41 39 37 38
53 53 52 52 52 52 52 52 53 52 52 52 52 52 51 52 53 52 52 52 51 51 50 50 49 49 48 48 47 49 49 48 48 48 47 47 46 45 44 45 44 45 45 43 43 42 42 40 39 36 38 38 37 39 38 38 38 34 33 36 40 36 38
53 53 52 53 52 53 53 53 54 54 53 53 53 53 53 53 52 52 53 53 53 53 52 50 50 50 50 48 48 48 48 48 48 48 48 47 47 45 44 44 44 45 45 43 42 42 42 41 40 39 38 38 39 38 40 39 39 40 40 36 38 35 37
52 52 52 53 53 53 53 54 54 54 55 54 54 54 54 54 54 54 53 53 53 53 53 52 51 50 50 51 49 49 48 48 48 48 48 48 49 47 45 44 44 45 45 43 43 42 41 40 37 38 36 36 37 39 40 40 38 38 38 37 38 40 39
51 52 52 52 52 53 53 53 54 54 54 54 54 54 54 54 54 54 54 54 53 53 53 53 53 52 52 51 51 50 49 49 49 48 48 48 48 48 47 46 45 45 44 44 43 43 42 40 37 37 35 34 36 39 40 39 39 39 38 37 38 38 39
52 51 52 52 52 52 52 53 53 53 53 53 53 53 53 53 53 54 54 54 54 54 54 54 54 54 53 53 51 50 50 50 49 49 48 48 49 48 48 48 46 46 45 44 45 44 43 41 40 37 38 38 37 39 39 39 37 38 38 38 38 38 37
52 52 51 52 53 53 53 53 53 52 53 52 52 53 53 53 53 53 53 53 54 54 54 54 54 54 54 53 53 51 51 50 50 49 49 49 49 49 48 49 47 46 45 45 45 45 43 41 41 40 40 39 40 39 38 38 38 37 38 38 37 37 37
52 52 52 51 51 52 52 53 52 52 53 53 53 53 53 53 53 53 53 53 53 53 53 53 53 53 53 53 53 52 51 50 50 50 49 49 49 49 49 48 47 47 47 49 47 46 44 43 39 37 39 41 40 39 39 38 38 37 37 38 38 37 37
51 51 51 52 51 51 52 52 52 52 52 52 53 53 52 52 52 52 52 52 52 52 53 53 52 49 49 53 53 53 53 52 51 50 50 50 49 48 49 49 49 50 49 49 46 43 41 41 41 40 38 41 40 38 38 37 37 38 39 39 37 37 36
51 51 51 51 50 51 51 51 51 51 51 51 51 52 52 51 52 51 52 52 51 51 52 52 50 46 45 45 50 52 52 52 51 51 50 50 49 49 49 48 48 49 50 48 46 40 39 39 39 38 39 40 40 39 37 37 38 39 40 39 37 37 37
50 49 51 52 51 51 51 51 51 51 51 51 52 51 51 51 51 51 50 50 50 51 51 47 42 41 41 42 45 51 52 52 52 51 51 50 50 49 49 48 48 49 49 48 44 40 40 38 37 37 37 37 37 37 39 41 40 37 37 37 37 37 37
45 44 44 44 46 49 50 50 50 50 50 50 49 49 50 50 50 50 50 51 51 51 50 43 39 39 39 40 40 44 50 51 51 51 50 50 49 49 48 48 48 48 49 48 45 40 40 40 38 39 39 39 39 37 36 36 39 41 38 38 37 37 37
40 41 41 41 42 43 44 44 44 45 45 45 46 46 46 48 48 47 47 48 49 46 44 40 38 38 38 39 39 41 49 49 49 47 47 47 48 48 47 47 46 46 46 44 41 41 40 41 41 40 39 39 39 39 38 37 37 38 39 40 39 37 38
38 39 39 39 40 40 41 41 42 42 41 42 42 42 43 44 45 45 46 44 42 39 38 38 37 37 38 40 39 42 44 44 43 42 42 42 43 44 45 45 45 44 43 44 44 42 42 41 40 39 37 37 37 38 37 37 38 39 40 39 39 38 39
39 39 39 39 40 40 39 39 40 41 41 40 39 40 41 42 42 41 39 38 39 40 37 37 37 38 39 40 40 43 42 42 41 41 41 42 42 42 42 42 40 40 40 41 41 39 40 39 38 36 36 35 35 36 36 37 38 38 39 38 37 36 36
40 39 39 40 40 40 41 41 40 40 40 38 39 39 37 37 38 37 39 37 36 36 36 37 37 38 38 38 40 41 41 40 39 39 39 40 42 40 39 38 38 38 38 38 37 36 36 37 37 35 35 34 34 33 33 34 36 36 36 35 35 35 35
40 40 40 41 41 40 39 38 39 40 40 39 39 37 35 34 34 36 35 34 34 36 36 37 37 38 38 39 40 41 40 38 37 37 37 37 39 41 42 40 39 37 37 37 35 34 35 36 36 35 35 33 33 32 32 33 34 34 33 35 35 34 34
39 39 39 39 40 40 40 40 39 38 38 38 37 36 37 34 33 33 35 37 39 34 34 37 37 37 37 38 39 39 38 36 36 35 35 35 35 36 37 38 39 37 37 37 34 34 34 35 34 33 33 32 31 31 31 31 33 33 34 35 34 35 35
41 41 41 40 41 42 40 38 37 37 36 36 35 34 34 33 31 31 31 31 33 33 33 35 38 36 37 37 38 39 37 36 35 34 34 34 33 33 34 35 36 34 34 34 34 34 34 33 34 34 33 32 32 31 31 33 35 34 34 34 34 34 34
42 42 43 43 42 41 39 38 37 37 36 34 34 33 32 32 31 30 30 31 32 34 37 34 36 36 36 36 36 37 36 36 35 35 34 34 33 33 33 33 35 34 33 33 33 34 34 33 33 33 33 32 33 33 34 33 35 34 34 35 34 34 34
40 41 41 41 41 39 37 36 37 36 35 35 33 32 33 32 30 30 30 31 33 31 35 38 35 35 35 36 35 36 37 36 35 34 33 32 32 33 33 33 34 35 33 33 33 34 34 34 35 36 34 33 33 34 36 36 35 34 34 33 32 32 32
40 41 41 40 39 39 37 37 36 36 35 34 33 32 31 31 30 29 30 30 30 31 32 35 36 36 35 35 35 35 35 35 35 36 33 33 33 33 34 35 36 35 33 33 33 34 34 34 34 34 34 34 34 34 35 34 34 32 32 32 32 32 31
40 41 41 39 39 38 37 36 36 36 36 35 34 32 31 30 30 30 29 30 31 31 31 32 36 36 36 35 35 35 35 35 35 36 35 33 33 34 34 35 35 34 34 34 33 33 33 34 33 33 33 33 33 32 33 32 31 32 31 31 31 31 30

ECMWFFLT1_sfc_dewp_051.txt.gz
Dewpoint
58 57 58 58 58 56 55 55 55 56 56 57 58 58 60 61 61 60 60 59 58 57 57 58 60 60 62 62 62 62 61 61 61 60 60 60 59 59 61 60 61 60 60 59 59 58 55 54 53 54 56 58 59 60 60 58 56 56 56 57 57 59 60
58 57 57 56 55 56 55 55 56 55 56 57 57 59 59 59 58 58 58 58 58 57 56 56 58 59 62 62 62 62 62 60 61 61 61 60 60 60 59 59 59 58 56 58 59 60 58 53 52 53 52 51 50 51 51 50 50 52 51 52 52 54 58
58 57 56 55 55 56 55 56 56 56 55 57 57 57 57 56 58 58 57 58 59 58 56 57 58 59 59 58 59 59 60 60 60 60 59 60 59 59 59 58 55 53 51 52 54 55 55 55 51 50 53 49 50 47 49 47 47 47 47 47 48 48 49
58 57 56 56 54 55 54 55 55 55 56 56 57 58 58 57 59 59 59 58 58 58 56 55 57 54 56 57 57 58 59 59 59 59 58 58 57 56 55 52 50 50 51 50 51 53 52 51 49 49 47 42 44 43 47 45 43 40 39 44 44 45 46
59 57 57 56 55 54 55 53 54 54 55 55 57 57 58 58 59 59 59 58 57 58 57 57 56 55 55 55 56 56 56 57 57 56 56 56 56 54 55 53 52 52 50 47 47 52 52 50 50 47 43 41 38 38 40 43 39 38 37 37 37 41 43
59 58 58 57 56 54 53 53 53 53 53 53 55 56 57 59 58 57 57 56 56 58 57 55 56 57 56 55 55 55 56 55 55 56 54 56 56 53 50 52 50 47 48 50 50 49 53 52 49 45 44 43 43 41 41 40 36 34 34 33 35 37 39
59 59 58 56 56 55 54 54 53 53 53 55 55 56 56 57 58 59 58 58 57 57 56 57 57 56 57 51 54 54 55 55 56 56 54 55 54 54 53 48 48 46 48 50 49 48 49 50 47 47 46 46 45 39 39 40 40 34 32 30 33 36 38
58 58 57 57 56 55 55 55 55 55 54 54 54 56 56 58 58 58 58 57 57 57 56 57 56 56 57 52 53 56 55 55 54 54 53 53 52 51 53 49 48 48 47 44 45 45 43 49 49 48 46 45 44 43 40 35 34 36 34 29 31 33 36
57 57 56 56 57 57 56 55 55 56 55 55 56 56 56 57 58 57 57 57 57 57 56 55 55 53 56 54 52 54 53 52 54 53 52 52 53 53 51 50 46 45 48 46 45 45 43 48 48 49 49 45 43 41 41 39 36 32 33 30 28 32 32
57 57 57 56 56 56 57 57 55 55 56 56 56 57 56 56 57 57 56 57 57 57 56 54 54 54 55 53 53 53 52 53 51 50 51 49 51 51 50 51 47 47 47 50 47 46 48 48 45 46 45 45 43 40 38 37 39 36 30 29 25 30 32
57 57 57 56 56 55 56 56 56 55 55 56 56 56 57 56 56 55 56 56 57 56 55 54 52 53 54 52 53 51 52 53 51 51 51 48 50 50 50 48 47 45 50 47 47 50 48 48 45 45 43 43 44 39 38 35 37 40 36 35 32 30 32
57 57 56 56 56 55 55 55 55 56 57 56 55 56 56 55 55 55 55 55 56 56 55 55 54 54 53 52 53 51 53 52 49 49 51 50 50 49 49 48 48 46 49 49 48 47 49 47 44 38 41 44 46 44 41 38 36 37 42 36 36 34 35
55 55 56 56 55 55 54 55 55 56 57 56 56 56 55 54 54 54 53 53 54 55 54 55 54 54 54 54 53 51 51 50 47 47 47 49 45 48 48 47 45 44 47 45 46 47 44 47 47 40 41 40 40 46 43 38 37 36 41 36 37 35 36
56 55 56 56 56 56 56 55 55 56 55 56 56 55 54 54 53 53 52 52 52 53 53 54 55 55 53 53 54 54 51 49 47 48 48 49 47 47 45 44 45 47 49 46 45 45 41 42 44 44 43 38 38 43 41 41 38 38 41 41 40 36 38
56 56 56 56 56 55 55 55 56 55 55 56 55 54 53 56 55 53 52 51 52 51 52 53 54 53 52 53 54 55 55 52 50 49 50 46 47 47 49 45 43 47 46 44 45 36 38 39 36 34 37 38 36 39 43 42 41 40 40 41 39 39 39
56 57 57 56 56 55 56 56 55 55 55 55 55 54 55 55 54 54 53 54 53 53 53 53 54 53 53 52 51 53 54 54 53 52 51 49 45 45 46 47 46 48 49 47 47 45 45 40 37 34 38 38 37 39 38 41 43 42 42 40 41 38 40
57 57 57 57 58 58 57 57 56 55 55 56 55 56 55 54 55 55 55 54 54 54 54 55 55 54 53 53 52 51 52 53 52 52 51 49 47 48 47 47 48 49 48 47 46 45 44 44 42 39 40 41 41 40 43 44 44 44 43 42 41 35 38
58 58 58 59 59 58 58 58 58 55 56 56 56 58 57 56 55 54 55 53 54 54 55 55 54 55 55 55 54 54 53 52 54 52 52 52 53 51 49 48 47 47 48 47 48 45 44 45 38 40 39 37 38 40 43 43 42 43 44 43 42 40 41
58 58 58 58 59 59 59 58 58 59 57 56 58 58 58 57 56 54 54 55 55 55 56 56 54 55 55 56 56 55 55 54 53 52 53 52 51 52 53 50 49 48 47 48 47 48 46 45 41 42 39 36 35 40 43 43 43 43 42 41 43 42 42
57 57 58 58 59 58 58 59 57 57 57 57 57 57 57 56 57 56 56 56 56 56 56 56 57 57 56 56 56 56 56 56 55 55 54 53 52 53 52 52 53 51 52 49 49 49 49 47 45 43 44 45 40 42 43 41 40 42 43 43 42 42 41
57 57 57 57 58 58 58 58 58 58 57 58 57 56 56 57 58 57 57 57 57 57 57 56 57 57 57 57 57 57 56 56 55 55 55 54 54 53 53 53 54 53 52 52 50 50 50 47 45 45 44 44 43 44 42 42 42 41 42 42 40 40 38
57 57 56 57 57 58 58 59 58 58 58 58 59 57 57 57 56 56 56 57 56 57 57 58 58 57 58 57 57 56 56 55 55 55 55 54 54 53 52 52 52 53 55 54 50 50 49 47 46 44 45 45 45 44 43 42 41 40 40 42 41 41 39
56 56 56 56 56 57 57 58 59 58 57 57 57 57 57 57 56 57 56 56 57 58 58 58 55 51 50 56 56 56 57 56 55 55 55 55 55 54 53 53 53 53 51 50 47 44 43 42 44 45 44 45 43 43 42 42 40 40 42 41 39 38 38
56 55 56 56 57 56 56 57 58 57 57 57 57 57 57 56 57 57 56 56 57 57 57 56 44 41 42 43 54 58 57 57 56 56 55 55 55 55 54 52 53 53 51 49 50 43 41 40 39 39 40 41 43 45 42 42 42 42 40 40 38 37 36
55 56 56 55 55 55 56 56 56 56 56 56 57 57 57 57 56 56 57 57 57 56 57 44 39 40 40 40 42 55 57 57 57 56 56 55 55 55 55 55 55 54 54 52 51 48 43 39 38 38 37 37 37 37 39 45 42 41 41 39 38 38 37
55 56 55 55 56 56 56 55 56 56 56 56 55 56 55 55 56 56 57 57 56 54 54 39 38 39 39 39 39 46 55 56 56 56 56 55 55 55 55 54 54 53 52 51 48 48 44 41 38 38 39 39 39 37 35 36 38 46 41 39 39 39 38
52 50 50 52 54 54 55 55 56 55 55 55 56 55 55 55 54 54 54 54 55 54 54 39 37 38 39 39 38 45 54 55 55 53 51 52 53 53 53 53 52 52 51 49 48 46 43 41 41 43 43 42 41 41 39 37 37 38 40 41 39 38 40
45 46 47 49 51 51 51 52 51 51 52 53 54 53 55 55 53 53 53 53 54 54 48 37 37 38 39 39 39 46 55 53 51 50 49 49 49 50 50 51 51 50 49 48 46 44 44 44 44 44 43 42 41 40 41 40 40 39 38 38 38 38 38
45 44 45 47 47 47 49 50 51 51 51 50 50 50 50 51 52 51 52 54 54 52 46 37 37 39 39 38 41 52 51 50 48 47 47 47 46 47 48 49 48 48 47 46 42 40 41 43 43 42 41 40 39 39 38 37 37 38 41 38 38 38 38
45 45 45 46 46 48 49 49 50 50 51 50 51 51 51 50 50 52 52 52 54 52 48 40 37 38 38 40 45 50 49 46 46 46 46 46 45 45 45 45 46 45 45 44 39 37 38 40 42 41 40 40 38 37 36 37 37 36 36 35 35 35 34
45 46 46 46 48 49 49 49 50 49 50 50 49 48 47 47 46 46 48 48 47 50 47 41 37 38 38 40 45 50 47 46 45 44 43 44 44 43 41 43 45 44 44 42 36 35 36 40 42 41 40 38 37 36 35 36 36 37 35 35 35 34 34
45 46 46 47 50 50 50 50 48 49 49 49 48 46 44 46 45 44 44 45 40 46 46 43 37 37 38 39 46 49 46 45 44 43 41 41 42 41 40 38 39 40 40 38 34 34 35 39 41 40 38 37 35 36 36 36 36 36 37 37 37 37 37
47 46 46 48 49 50 49 48 49 49 48 45 45 44 43 44 45 42 41 43 44 44 45 45 41 37 38 38 39 46 46 45 44 43 41 39 39 40 39 37 36 34 34 34 33 33 34 35 37 37 37 36 36 36 36 37 37 36 36 35 35 37 36
49 49 48 48 48 48 47 47 46 47 46 45 45 44 45 44 43 42 41 41 42 44 44 45 42 37 37 37 37 41 45 45 44 42 40 38 38 38 37 36 35 34 33 33 33 33 34 34 35 38 37 37 37 37 35 36 38 35 35 35 35 34 34
48 50 49 49 48 48 47 47 48 48 45 45 47 46 44 41 41 40 40 40 41 42 40 41 43 37 36 37 36 38 44 44 43 42 41 39 38 38 37 35 34 34 33 33 34 34 34 34 35 35 36 34 34 34 35 34 35 33 33 32 31 30 31
47 48 49 49 49 48 46 46 47 47 47 46 46 45 44 42 41 40 39 38 38 40 40 39 37 40 36 36 36 36 38 40 35 43 41 40 39 37 36 36 35 35 33 34 34 34 34 34 34 34 34 33 34 33 33 32 31 33 30 30 31 31 30
46 48 49 48 48 48 46 47 45 45 45 44 43 43 41 41 41 41 40 38 37 36 38 39 37 37 38 35 36 35 35 35 36 41 42 40 38 36 36 37 35 34 34 34 33 33 33 33 33 33 33 33 32 32 31 31 31 32 30 30 30 30 31

ECMWFFLT1_sfc_dewp_057.txt.gz
Dewpoint
55 57 57 56 56 55 54 55 55 55 54 55 56 54 56 56 57 56 56 56 53 53 52 54 56 57 57 58 59 59 59 60 61 60 58 58 59 60 60 60 60 61 61 61 59 57 54 54 56 57 56 56 56 55 54 53 53 54 56 56 55 55 56
57 57 55 54 54 56 56 54 54 53 55 55 53 54 53 52 53 53 53 52 51 50 50 53 56 55 56 57 58 58 58 58 59 60 60 59 58 57 58 58 58 57 57 60 60 59 57 55 54 54 54 55 55 54 54 53 52 54 53 54 54 55 56
55 54 53 54 55 56 55 55 53 52 52 54 53 51 52 50 51 51 52 54 56 54 53 54 53 54 54 55 57 58 58 58 58 58 57 57 56 56 54 54 54 53 54 58 59 59 59 59 54 52 54 54 51 51 53 52 51 51 51 52 53 53 54
55 54 53 54 53 54 53 54 53 52 51 50 51 53 52 51 53 52 53 54 55 54 50 49 51 49 52 55 55 56 56 56 55 56 55 55 54 52 51 49 47 49 50 49 53 56 57 57 57 52 52 50 50 50 51 49 48 46 47 50 50 50 51
56 54 54 53 53 53 54 53 52 51 50 49 51 51 53 51 52 53 54 54 53 54 52 52 51 50 52 52 53 54 54 55 56 54 54 54 53 49 50 47 45 45 45 46 48 52 54 56 52 50 47 46 44 44 44 48 44 43 43 44 45 48 48
56 54 53 53 54 53 52 51 51 48 47 48 49 51 52 53 52 52 52 52 53 53 52 49 50 49 50 50 50 51 52 51 50 52 50 53 52 49 46 45 42 39 42 45 50 50 53 53 49 46 45 45 45 43 40 40 39 38 40 42 43 44 45
55 55 53 53 53 51 50 50 50 48 48 50 50 51 51 50 50 52 52 51 51 52 53 54 52 49 49 44 50 50 51 52 52 52 51 52 51 51 49 44 44 42 41 45 49 49 50 49 46 45 45 45 44 36 36 34 34 33 34 36 40 43 44
56 53 53 53 53 51 50 51 50 50 48 49 50 52 50 51 51 51 51 52 51 52 51 52 50 50 49 43 46 49 49 50 49 49 50 52 50 49 50 46 45 44 43 37 41 47 47 48 46 46 45 43 41 40 38 30 30 33 34 33 34 37 40
56 55 53 53 52 52 52 50 51 51 50 50 52 52 52 51 51 51 50 50 51 52 51 49 50 49 49 48 47 49 48 46 50 49 48 50 51 51 49 46 44 42 45 43 42 44 46 49 48 48 45 42 39 37 38 37 36 32 32 32 33 34 36
57 55 53 55 54 53 54 53 51 51 53 52 53 53 52 52 52 51 51 52 52 51 51 49 49 50 49 49 48 48 48 47 48 47 49 49 49 49 47 47 43 43 43 46 45 45 48 49 48 47 43 42 42 38 38 37 37 36 34 32 30 32 34
56 55 55 55 54 53 53 53 54 52 51 51 52 53 54 53 52 52 52 52 53 52 52 50 48 48 50 48 48 47 48 49 48 48 47 47 49 49 48 46 46 44 46 45 45 47 46 47 45 45 42 42 43 40 39 38 38 39 39 38 34 31 33
57 55 55 55 54 52 52 53 53 53 53 52 51 53 53 52 52 51 52 52 53 52 52 52 51 50 49 50 50 49 50 49 48 48 49 49 48 48 48 47 45 44 46 46 45 46 47 44 42 39 41 44 45 46 43 40 39 41 42 40 37 37 36
58 57 56 55 53 52 51 52 52 54 53 51 52 52 50 50 51 51 50 50 51 51 51 52 51 51 52 52 51 49 50 49 47 47 47 47 43 47 47 45 45 45 46 41 43 44 42 44 45 39 42 43 43 46 44 42 41 40 43 41 40 39 41
60 58 56 55 53 53 52 52 52 54 51 51 52 51 49 49 48 50 49 49 50 52 52 53 54 54 53 53 52 51 51 49 48 47 46 47 45 46 45 44 43 44 46 45 42 41 39 40 42 43 42 40 40 43 42 43 42 43 45 47 45 42 43
60 60 61 55 53 51 51 50 53 51 52 50 51 49 47 48 48 49 47 47 49 50 52 52 53 54 53 54 54 53 52 51 50 50 50 47 48 47 48 46 44 46 45 44 45 35 36 36 35 37 40 43 42 46 47 45 44 44 45 46 44 44 44
59 62 62 57 54 51 51 51 50 51 51 50 50 49 48 49 48 48 48 49 49 50 50 51 54 54 54 54 52 54 54 53 52 52 52 50 46 47 49 49 48 49 49 49 48 46 43 40 37 36 41 44 44 46 44 45 44 45 45 45 47 44 46
59 61 60 58 54 52 52 52 50 50 49 50 48 50 49 48 49 50 50 49 49 50 52 53 54 54 53 54 54 54 54 54 54 53 52 51 49 49 50 50 51 51 50 50 49 47 44 44 43 41 43 46 47 47 49 47 47 47 45 45 45 42 45
59 60 60 58 57 53 52 53 52 48 49 49 47 48 49 48 50 49 51 49 50 51 52 52 54 53 54 55 55 54 54 54 55 54 55 53 55 51 51 51 50 50 50 50 51 49 46 45 42 43 44 45 46 48 49 48 49 48 48 47 47 47 47
60 60 60 58 57 55 52 52 52 52 50 49 49 49 50 49 49 48 49 49 50 50 51 52 51 52 52 54 55 56 55 54 55 54 54 55 53 53 53 52 53 51 50 51 51 51 52 47 44 46 45 44 43 46 49 50 49 50 48 47 48 47 48
59 59 59 59 58 55 52 51 50 49 50 48 49 50 51 50 51 51 51 51 50 51 51 52 52 53 52 52 54 54 56 56 56 56 55 55 54 55 54 54 55 54 53 52 52 52 52 51 51 50 49 49 46 47 49 48 47 48 48 48 47 46 45
61 59 59 59 57 54 54 53 50 48 49 50 50 50 50 50 53 55 55 52 50 52 52 53 52 53 53 54 54 55 56 58 58 56 58 56 56 55 56 55 55 55 54 54 54 53 56 54 52 51 49 49 49 48 47 48 48 46 47 47 45 45 45
60 58 58 57 58 55 55 54 52 50 51 51 52 50 52 53 56 55 57 53 54 55 56 59 59 59 59 57 55 58 59 58 58 58 57 57 56 56 55 56 56 56 60 57 52 52 52 51 54 51 51 50 49 49 49 49 49 51 50 47 46 47 45
58 58 58 58 58 58 57 58 57 54 52 51 54 59 58 59 58 59 55 55 58 60 60 59 50 46 46 55 57 56 57 59 58 58 59 58 58 56 56 56 57 57 54 53 51 47 45 45 47 52 54 54 52 50 51 53 52 52 49 46 45 46 45
56 57 57 57 58 57 57 57 57 58 58 58 58 58 57 56 56 58 59 58 58 59 58 52 42 41 41 44 57 60 58 57 58 58 57 57 58 57 57 55 57 57 56 54 55 46 45 43 41 41 41 43 46 57 51 50 48 48 47 47 46 45 44
54 55 56 56 57 57 59 57 56 56 58 58 58 58 58 57 57 58 58 58 58 59 55 43 41 42 41 41 43 56 58 54 55 53 54 53 52 52 53 55 56 58 57 58 55 53 47 40 38 38 38 38 38 37 39 50 50 48 47 46 45 45 45
55 56 56 56 57 56 56 57 56 55 56 56 57 57 57 59 58 59 59 58 57 58 54 39 40 41 42 40 40 48 55 52 51 51 52 51 50 50 50 50 53 56 54 55 53 54 51 47 40 39 39 39 39 37 35 35 37 49 47 46 45 44 45
54 55 55 56 55 55 54 53 54 54 55 57 57 57 59 59 59 55 56 56 57 56 53 38 39 39 40 40 39 42 55 50 51 49 50 50 50 51 51 50 48 52 54 53 53 52 52 49 45 44 45 45 43 43 36 36 36 37 41 46 45 44 46
53 54 53 52 52 52 53 54 54 55 56 58 57 57 57 55 54 55 56 55 56 56 52 37 38 38 38 39 39 39 54 51 50 51 50 49 49 51 51 51 49 49 50 52 53 54 51 50 49 49 47 46 44 42 43 44 46 46 45 45 44 44 44
49 49 49 49 50 51 52 54 53 53 53 53 53 52 50 50 49 48 48 49 51 53 50 36 38 38 39 38 38 55 51 49 48 49 48 49 49 50 51 50 49 50 51 50 42 39 43 53 48 48 47 46 46 46 43 36 36 37 43 44 44 44 42
44 45 46 47 47 49 49 50 49 49 49 49 48 48 47 47 46 47 47 47 47 52 52 42 39 39 39 38 40 55 48 46 47 48 48 49 48 48 48 49 49 49 49 47 40 37 38 39 45 46 46 46 46 44 41 39 37 34 35 35 35 35 34
41 42 42 43 45 47 47 47 47 46 45 45 45 45 45 45 45 45 45 46 47 47 52 45 39 38 38 37 40 54 47 47 48 48 47 47 46 46 45 43 48 47 47 46 36 36 36 42 46 44 45 45 44 44 44 42 40 39 34 35 34 33 33
40 40 41 42 44 44 44 44 44 45 44 44 45 43 41 42 43 44 45 47 48 48 51 46 38 38 39 38 46 52 47 45 47 46 43 44 45 45 44 41 40 41 43 40 35 35 35 41 46 44 44 43 42 42 43 44 44 44 42 41 40 38 38
41 40 39 42 43 43 43 43 44 43 44 42 40 40 39 40 42 44 45 43 44 48 50 50 48 38 39 38 38 47 50 43 45 44 43 40 43 44 42 41 37 35 35 35 35 34 35 35 45 43 44 42 41 41 43 42 42 40 38 36 38 41 42
42 41 40 42 43 42 41 42 43 43 42 42 41 40 41 41 43 43 44 45 44 47 50 50 48 37 38 38 37 40 48 43 43 41 39 40 39 42 41 39 38 35 34 34 34 34 35 35 36 44 42 41 38 40 36 37 42 35 39 38 38 38 38
42 43 41 41 42 42 41 41 41 41 40 39 41 42 43 41 41 42 43 43 45 48 50 49 48 39 37 37 37 37 46 47 49 42 40 37 36 38 41 39 37 36 34 34 34 34 34 34 35 37 36 32 31 31 40 34 34 36 37 36 32 31 31
44 46 45 44 43 44 43 41 41 41 42 41 41 42 43 41 39 39 41 40 43 46 48 46 42 46 34 36 36 36 36 44 38 51 39 38 38 42 40 39 36 36 34 34 34 34 34 33 34 34 32 31 29 32 34 32 33 34 31 32 33 32 30
40 42 44 44 43 45 44 43 42 42 41 41 41 41 42 41 38 39 39 39 42 41 45 46 40 40 40 36 36 35 35 35 37 46 47 41 38 42 40 38 36 34 34 34 33 33 33 33 33 32 32 32 32 34 34 34 32 34 32 30 31 32 33